Observation Tools

Northern red oak Photo courtesy of Steve Baskauf, Vanderbilt University, bioimages.vanderbilt.edu.

Northern red oak (Quercus rubra)


Plant Family: Beech (Fagaceae)
Project BudBurst Plant Group: Deciduous Trees and Shrubs

Identification Hints: Northern red oak trees are foundthroughout the eastern United States, as far west as Kansas and as far south asGeorgia. These trees can grow to up to 140 feet tall. The leaves of Northern red oaks have 7-9 pointed lobes with v-shaped sinuses (the indented part between the lobes). The bark of the Northern red oak is distinctive. It has dark red to grey-brown ridges with what appear to be shiny stripes down each ridge.

Did you Know? These trees have separate male and female flowers that appear in the form of catkins. Both male and female flowers can be found on the same tree. Acorns develop after the flowers have been pollinated but do not reach maturity (ripening) until the second year. Northern red oaks have been used in many revegetation projects following coal mining. The lumber from Northern red oaks is also commonly used in furniture making.


Live Map for Northern red oak

Other years available for viewing:

Below you can view all observations that have been reported in for Northern red oak (If the map below is empty then there have not been any observations reported.)

Use the navigation buttons on the left to zoom in/out and pan around. Click on each place marker to get detail information about that observation.

Leaf/Needles/Stalk = Leaf/Needles/Stalk Flower = Flower Pollen = Pollen Fruiting = Fruiting Color = Color

--Back to Top--

close help window button

The table below displays all the data that has been submitted to Project BudBurst. By default, the data is sorted by the date on which the phenophase occurred. Clicking the up and down arrows next to each column name allows you to sort on any value. If there have been more than 10 observations submitted, you can choose how many to display at a time using the "Show __ entries" control. You can also page through the data using the previous and next buttons at the bottom right of the table.

The Search box allows you to search all of the data. Searching by date, species, phenophase, etc. is easy—just start typing and the table will immediately change to contain only observations that contain your search phrase. Do you want to see only 2012 observations? Just type "2012" in the search box. Only want to see maples? Enter "Acer." You can combine searches, too! Searching for "acer 2012" will narrow your results to only the maples that were observed in 2012 (assuming that any observations exist, of course).

Once you have your results in the order desired, you can use any of the buttons above the search box to copy the results to the clipboard; save them as a text, or spreadsheet; or even print them from your browser!

Observational data for Northern red oak:

help button
Date Contributor Common Name Species Phenophase Latitude Longitude Obs#
Fri Sep 23 00:00:00 GMT 2011 cwoodward Northern red oak Quercus rubra Leaves Changing Color (Early) 43.187000000000000 -89.457000000000000 13378
Mon Oct 10 00:00:00 GMT 2011 palaback Northern red oak Quercus rubra Leaves Changing Color (Early) 43.402500000000000 -72.071700000000000 13538
Mon Oct 10 00:00:00 GMT 2011 palaback Northern red oak Quercus rubra Leaves Changing Color (Early) 43.000000000000000 -72.095800000000000 13542
Tue Oct 11 00:00:00 GMT 2011 palaback Northern red oak Quercus rubra Leaves Changing Color (Early) 43.351200000000000 -72.040300000000000 13613
Tue Oct 11 00:00:00 GMT 2011 palaback Northern red oak Quercus rubra Leaves Dropping (Early) 43.351200000000000 -72.040300000000000 13614
Tue Oct 11 00:00:00 GMT 2011 palaback Northern red oak Quercus rubra Leaves Changing Color (Early) 43.301600000000000 -71.866300000000000 13628
Thu Oct 13 00:00:00 GMT 2011 palaback Northern red oak Quercus rubra Leaves Changing Color (Middle) 43.363500000000000 -72.094500000000000 13681
Thu Nov 03 00:00:00 GMT 2011 palaback Northern red oak Quercus rubra Leaves Changing Color (Middle) 39.732100000000000 -104.960000000000000 13800
Wed Mar 21 00:00:00 GMT 2012 Sassafras Northern red oak Quercus rubra Leaves Unfolding (Middle) 38.113000000000000 -76.253100000000000 14377
Tue Sep 04 00:00:00 GMT 2012 ssshah18 Northern red oak Quercus rubra Leaves Changing Color (Early) 42.599800000000000 -83.098300000000000 16447
Tue Sep 04 00:00:00 GMT 2012 BmasterB Northern red oak Quercus rubra Leaves Changing Color (Early) 42.604800000000000 -83.097300000000000 16491
Tue Sep 04 00:00:00 GMT 2012 Nabiha Northern red oak Quercus rubra Leaves Changing Color (Early) 42.609200000000000 -83.105500000000000 16506
Wed Oct 10 00:00:00 GMT 2012 bandjnewman Northern red oak Quercus rubra Leaves Dropping (Early) 46.810800000000000 -90.818200000000000 17031
Mon Nov 26 00:00:00 GMT 2012 shriyasparkles Northern red oak Quercus rubra Leaves Changing Color (Late) 42.599800000000000 -83.098300000000000 17564
Fri Nov 09 00:00:00 GMT 2012 krakerjak Northern red oak Quercus rubra Leaves Changing Color (Early) 41.892300000000000 -72.912700000000000 17594
Fri Nov 16 00:00:00 GMT 2012 krakerjak Northern red oak Quercus rubra Leaves Changing Color (Late) 41.892300000000000 -72.912700000000000 17595
Fri Nov 16 00:00:00 GMT 2012 krakerjak Northern red oak Quercus rubra Leaves Dropping (Late) 41.892300000000000 -72.912700000000000 17596
Fri Nov 16 00:00:00 GMT 2012 krakerjak Northern red oak Quercus rubra Leaves Dropping (Early) 41.892300000000000 -72.912700000000000 17597
Sun Dec 09 00:00:00 GMT 2012 krakerjak Northern red oak Quercus rubra Leaves Changing Color (Early) 41.892300000000000 -72.912700000000000 17593
Sun Oct 28 00:00:00 GMT 2012 aliciast. sauveur26 Northern red oak Quercus rubra Leaves Dropping (Late) 41.912200000000000 -73.036900000000000 17616
Tue Oct 16 00:00:00 GMT 2012 aliciast. sauveur26 Northern red oak Quercus rubra Leaves Changing Color (Middle) 41.912200000000000 -73.036900000000000 17614
Wed Oct 24 00:00:00 GMT 2012 aliciast. sauveur26 Northern red oak Quercus rubra Leaves Changing Color (Late) 41.912200000000000 -73.036900000000000 17615
Thu Oct 04 00:00:00 GMT 2012 aliciast. sauveur26 Northern red oak Quercus rubra Leaves Dropping (Early) 41.912200000000000 -73.036900000000000 17613
Sun Sep 30 00:00:00 GMT 2012 aliciast. sauveur26 Northern red oak Quercus rubra Leaves Changing Color (Early) 41.912200000000000 -73.036900000000000 17612
Sat Dec 22 00:00:00 GMT 2012 clarali Northern red oak Quercus rubra Leaves Dropping (Middle) 41.395800000000000 -72.897200000000000 17626
Thu Jan 24 00:00:00 GMT 2013 nacielr Northern red oak Quercus rubra 50% Leaf Fall 39.156200000000000 -86.525000000000000 17822
Tue Apr 07 00:00:00 GMT 2009 gmwimp Northern red oak Quercus rubra Bud Burst 38.908400000000000 -77.072500000000000 18041
Fri Feb 22 00:00:00 GMT 2013 LakeDance Northern red oak Quercus rubra Leaves Dropping (Late) 42.026100000000000 -87.686400000000000 18071
Mon Feb 18 00:00:00 GMT 2013 mziche1 Northern red oak Quercus rubra Bud Burst 39.392900000000000 -76.608100000000000 18116
Sun Dec 23 00:00:00 GMT 2012 Clara Li Northern red oak Quercus rubra 50% Leaf Fall 41.336700000000000 -72.919800000000000 18160
Thu Mar 21 00:00:00 GMT 2013 DCub_CP_reporter14 Northern red oak Quercus rubra Bud Burst 39.946100000000000 -75.209100000000000 18226
Sat Mar 23 00:00:00 GMT 2013 jcro Northern red oak Quercus rubra Leaves Dropping (Middle) 42.298500000000000 -83.716900000000000 18324
Sat Mar 23 00:00:00 GMT 2013 jcro Northern red oak Quercus rubra Leaves Dropping (Middle) 42.298500000000000 -83.716900000000000 18325
Sun Mar 24 00:00:00 GMT 2013 pkarkos Northern red oak Quercus rubra 50% Leaf Fall 42.281600000000000 -83.721900000000000 18310
Wed Apr 03 00:00:00 GMT 2013 muziguo Northern red oak Quercus rubra Leaves Unfolding (Early) 39.165300000000000 -86.526400000000000 18482
Wed Apr 03 00:00:00 GMT 2013 harpmadison Northern red oak Quercus rubra Leaves Unfolding (Early) 39.170800000000000 -86.509000000000000 18560
Fri Mar 29 00:00:00 GMT 2013 ncesnik Northern red oak Quercus rubra Bud Burst 39.172700000000000 -86.529400000000000 18573
Thu Jan 24 00:00:00 GMT 2013 samivy333 Northern red oak Quercus rubra Bud Burst 39.167300000000000 -86.519500000000000 18749
Tue Apr 02 00:00:00 GMT 2013 samivy333 Northern red oak Quercus rubra First Leaf 39.167300000000000 -86.519500000000000 18750
Thu Apr 11 00:00:00 GMT 2013 ncmns Northern red oak Quercus rubra Leaves Unfolding (Middle) 35.782800000000000 -78.639300000000000 18793
Wed Apr 24 00:00:00 GMT 2013 rcholnoky Northern red oak Quercus rubra First Leaf 41.747100000000000 -72.690400000000000 19250
Sun Apr 28 00:00:00 GMT 2013 rcholnoky Northern red oak Quercus rubra All Leaves Unfolded 41.747100000000000 -72.690400000000000 19251
Wed Apr 24 00:00:00 GMT 2013 rcholnoky Northern red oak Quercus rubra First Flower 41.747100000000000 -72.690400000000000 19252
Sun Apr 28 00:00:00 GMT 2013 rcholnoky Northern red oak Quercus rubra Full Flower 41.747100000000000 -72.690400000000000 19253
Thu Apr 25 00:00:00 GMT 2013 Clara Li Northern red oak Quercus rubra First Flower 41.336700000000000 -72.919800000000000 19295
Wed May 01 00:00:00 GMT 2013 LakeDance Northern red oak Quercus rubra Bud Burst 42.034400000000000 -87.693000000000000 19470
Mon Apr 29 00:00:00 GMT 2013 SalladeScience_SRHS_Outdoor_Classroom_reporter4 Northern red oak Quercus rubra Bud Burst 42.912300000000000 -71.069700000000000 19497
Tue Apr 30 00:00:00 GMT 2013 SalladeScience_SRHS_Outdoor_Classroom_reporter4 Northern red oak Quercus rubra First Leaf 42.912300000000000 -71.069700000000000 19498
Mon Apr 01 00:00:00 GMT 2013 dj4592 Northern red oak Quercus rubra Bud Burst 41.000000000000000 -72.000000000000000 20108
Mon Apr 08 00:00:00 GMT 2013 dj4592 Northern red oak Quercus rubra First Leaf 41.000000000000000 -72.000000000000000 20109
Wed Apr 17 00:00:00 GMT 2013 dj4592 Northern red oak Quercus rubra All Leaves Unfolded 41.000000000000000 -72.000000000000000 20110
Thu Apr 25 00:00:00 GMT 2013 dj4592 Northern red oak Quercus rubra First Flower 41.000000000000000 -72.000000000000000 20111
Thu Mar 28 00:00:00 GMT 2013 mziche1 Northern red oak Quercus rubra Bud Burst 39.392600000000000 -76.607700000000000 20261
Mon Apr 15 00:00:00 GMT 2013 mziche1 Northern red oak Quercus rubra First Leaf 39.392600000000000 -76.607700000000000 20262
Thu Apr 25 00:00:00 GMT 2013 mziche1 Northern red oak Quercus rubra All Leaves Unfolded 39.392600000000000 -76.607700000000000 20263
Thu Mar 28 00:00:00 GMT 2013 mziche1 Northern red oak Quercus rubra 50% Color 39.392600000000000 -76.607700000000000 20264
Thu Mar 28 00:00:00 GMT 2013 mziche1 Northern red oak Quercus rubra Bud Burst 39.392600000000000 -76.607700000000000 20257
Mon Apr 15 00:00:00 GMT 2013 mziche1 Northern red oak Quercus rubra First Leaf 39.392600000000000 -76.607700000000000 20258
Thu Apr 25 00:00:00 GMT 2013 mziche1 Northern red oak Quercus rubra All Leaves Unfolded 39.392600000000000 -76.607700000000000 20259
Thu Mar 28 00:00:00 GMT 2013 mziche1 Northern red oak Quercus rubra 50% Color 39.392600000000000 -76.607700000000000 20260
Thu May 16 00:00:00 GMT 2013 ROSscience Northern red oak Quercus rubra Leaves Unfolding (Late) 40.814700000000000 -74.482500000000000 20454
Wed Apr 24 00:00:00 GMT 2013 ReaganB15 Northern red oak Quercus rubra Leaves Unfolding (Late) 38.739100000000000 -77.242800000000000 20785
Tue May 07 00:00:00 GMT 2013 SalladeScience_SRHS_Outdoor_Classroom_reporter4 Northern red oak Quercus rubra First Flower 42.912300000000000 -71.069700000000000 20962
Thu Apr 25 00:00:00 GMT 2013 mpgooley Northern red oak Quercus rubra Bud Burst 42.358800000000000 -71.250500000000000 21692
Fri Oct 11 00:00:00 GMT 2013 amcricket Northern red oak Quercus rubra Leaves Changing Color (Middle) 40.308200000000000 -74.873100000000000 22551
Tue Oct 15 00:00:00 GMT 2013 cnoblit Northern red oak Quercus rubra Fruit (Late) 42.196200000000000 -72.652500000000000 22711
Thu Oct 31 00:00:00 GMT 2013 amcricket Northern red oak Quercus rubra Leaves Changing Color (Late) 40.113300000000000 -74.863300000000000 22890
Thu Oct 31 00:00:00 GMT 2013 amcricket Northern red oak Quercus rubra Leaves Dropping (Middle) 40.113300000000000 -74.863300000000000 22891
Thu Oct 31 00:00:00 GMT 2013 rebeccakurson Northern red oak Quercus rubra 50% Color 40.777300000000000 -74.252300000000000 22846
Wed Sep 04 00:00:00 GMT 2013 marcepat Northern red oak Quercus rubra All Leaves Unfolded 39.184900000000000 -86.517400000000000 23030
Sun Oct 27 00:00:00 GMT 2013 marcepat Northern red oak Quercus rubra 50% Color 39.184900000000000 -86.517400000000000 23031
Wed Nov 06 00:00:00 GMT 2013 marcepat Northern red oak Quercus rubra 50% Leaf Fall 39.184900000000000 -86.517400000000000 23032
Fri Nov 08 00:00:00 GMT 2013 dancyn2005 Northern red oak Quercus rubra Leaves Changing Color (Late) 36.823100000000000 -84.945100000000000 23021
Fri Oct 25 00:00:00 GMT 2013 jtammyb Northern red oak Quercus rubra 50% Color 39.521400000000000 -86.471800000000000 23167
Tue Nov 12 00:00:00 GMT 2013 jtammyb Northern red oak Quercus rubra 50% Leaf Fall 39.521400000000000 -86.471800000000000 23168
Tue Nov 05 00:00:00 GMT 2013 Bethbiology Northern red oak Quercus rubra 50% Color 39.167000000000000 -86.523800000000000 23228
Sun Sep 22 00:00:00 GMT 2013 Tjharnish91 Northern red oak Quercus rubra 50% Color 39.173800000000000 -86.532500000000000 23291
Mon Oct 21 00:00:00 GMT 2013 Tjharnish91 Northern red oak Quercus rubra 50% Leaf Fall 39.173800000000000 -86.532500000000000 23292
Wed Sep 04 00:00:00 GMT 2013 emmehren Northern red oak Quercus rubra Bud Burst 39.165300000000000 -86.526400000000000 23531
Wed Nov 06 00:00:00 GMT 2013 emmehren Northern red oak Quercus rubra 50% Color 39.165300000000000 -86.526400000000000 23532
Wed Nov 06 00:00:00 GMT 2013 emmehren Northern red oak Quercus rubra 50% Leaf Fall 39.165300000000000 -86.526400000000000 23533
Tue Oct 29 00:00:00 GMT 2013 AmyEsparza Northern red oak Quercus rubra 50% Color 39.167700000000000 -86.511900000000000 23623
Tue Nov 05 00:00:00 GMT 2013 AmyEsparza Northern red oak Quercus rubra 50% Leaf Fall 39.167700000000000 -86.511900000000000 23624
Wed Oct 09 00:00:00 GMT 2013 UCSF_137_F13_Loyola_University_Chicago_reporter164 Northern red oak Quercus rubra Leaves Changing Color (Early) 41.999700000000000 -87.657200000000000 23808
Thu Oct 31 00:00:00 GMT 2013 UCSF_137_F13_Loyola_University_Chicago_reporter164 Northern red oak Quercus rubra Leaves Dropping (Late) 41.999700000000000 -87.657200000000000 23814
Thu Oct 31 00:00:00 GMT 2013 UCSF_137_F13_Loyola_University_Chicago_reporter164 Northern red oak Quercus rubra Leaves Changing Color (Late) 41.999700000000000 -87.657200000000000 23813
Wed Oct 23 00:00:00 GMT 2013 UCSF_137_F13_Loyola_University_Chicago_reporter164 Northern red oak Quercus rubra Leaves Dropping (Middle) 41.999700000000000 -87.657200000000000 23812
Wed Oct 23 00:00:00 GMT 2013 UCSF_137_F13_Loyola_University_Chicago_reporter164 Northern red oak Quercus rubra Leaves Changing Color (Middle) 41.999700000000000 -87.657200000000000 23811
Wed Oct 09 00:00:00 GMT 2013 UCSF_137_F13_Loyola_University_Chicago_reporter164 Northern red oak Quercus rubra Leaves Dropping (Early) 41.999700000000000 -87.657200000000000 23810
Thu Oct 31 00:00:00 GMT 2013 UCSF_137_F13_Loyola_University_Chicago_reporter110 Northern red oak Quercus rubra Leaves Dropping (Early) 41.999900000000000 -87.657000000000000 23826
Thu Oct 31 00:00:00 GMT 2013 UCSF_137_F13_Loyola_University_Chicago_reporter110 Northern red oak Quercus rubra Leaves Changing Color (Early) 41.999900000000000 -87.657000000000000 23824
Thu Oct 24 00:00:00 GMT 2013 UCSF_137_F13_Loyola_University_Chicago_reporter110 Northern red oak Quercus rubra Leaves Changing Color (Middle) 41.999900000000000 -87.657000000000000 23825
Mon Nov 18 00:00:00 GMT 2013 UCSF_137_F13_Loyola_University_Chicago_reporter110 Northern red oak Quercus rubra Leaves Dropping (Late) 41.999900000000000 -87.657000000000000 23827
Wed Nov 20 00:00:00 GMT 2013 UCSF_137_F13_Loyola_University_Chicago_reporter96 Northern red oak Quercus rubra Leaves Changing Color (Late) 41.999700000000000 -87.656800000000000 23727
Tue Oct 08 00:00:00 GMT 2013 UCSF_137_F13_Loyola_University_Chicago_reporter150 Northern red oak Quercus rubra Leaves Changing Color (Early) 41.998500000000000 -87.657000000000000 23845
Tue Oct 22 00:00:00 GMT 2013 UCSF_137_F13_Loyola_University_Chicago_reporter96 Northern red oak Quercus rubra Leaves Unfolding (Middle) 41.999700000000000 -87.656800000000000 23723
Wed Oct 09 00:00:00 GMT 2013 UCSF_137_F13_Loyola_University_Chicago_reporter96 Northern red oak Quercus rubra Leaves Changing Color (Early) 41.999700000000000 -87.656800000000000 23722
Tue Oct 22 00:00:00 GMT 2013 UCSF_137_F13_Loyola_University_Chicago_reporter96 Northern red oak Quercus rubra Leaves Dropping (Early) 41.999700000000000 -87.656800000000000 23725
Wed Oct 09 00:00:00 GMT 2013 UCSF_137_F13_Loyola_University_Chicago_reporter96 Northern red oak Quercus rubra Leaves Unfolding (Early) 41.999700000000000 -87.656800000000000 23721
Wed Nov 20 00:00:00 GMT 2013 UCSF_137_F13_Loyola_University_Chicago_reporter96 Northern red oak Quercus rubra Leaves Changing Color (Middle) 41.999700000000000 -87.656800000000000 23724
Wed Nov 20 00:00:00 GMT 2013 UCSF_137_F13_Loyola_University_Chicago_reporter96 Northern red oak Quercus rubra Leaves Changing Color (Late) 41.999700000000000 -87.656800000000000 23726
Wed Oct 09 00:00:00 GMT 2013 UCSF_137_F13_Loyola_University_Chicago_reporter96 Northern red oak Quercus rubra Fruit (Early) 41.999700000000000 -87.656800000000000 23720
Sun Nov 17 00:00:00 GMT 2013 UCSF_137_F13_Loyola_University_Chicago_reporter124 Northern red oak Quercus rubra Leaves Dropping (Late) 42.001300000000000 -87.660200000000000 23973
Mon Oct 21 00:00:00 GMT 2013 UCSF_137_F13_Loyola_University_Chicago_reporter124 Northern red oak Quercus rubra Leaves Changing Color (Middle) 42.001300000000000 -87.660200000000000 23970
Tue Oct 29 00:00:00 GMT 2013 UCSF_137_F13_Loyola_University_Chicago_reporter124 Northern red oak Quercus rubra Leaves Dropping (Early) 42.001300000000000 -87.660200000000000 23972
Tue Oct 29 00:00:00 GMT 2013 UCSF_137_F13_Loyola_University_Chicago_reporter124 Northern red oak Quercus rubra Leaves Changing Color (Early) 42.001300000000000 -87.660200000000000 23971
Wed Nov 20 00:00:00 GMT 2013 UCSF_137_F13_Loyola_University_Chicago_reporter96 Northern red oak Quercus rubra Leaves Dropping (Late) 41.999700000000000 -87.656800000000000 23882
Thu Nov 21 00:00:00 GMT 2013 UCSF_137_F13_Loyola_University_Chicago_reporter96 Northern red oak Quercus rubra Leaves Changing Color (Late) 41.999700000000000 -87.656800000000000 23885
Tue Oct 22 00:00:00 GMT 2013 UCSF_137_F13_Loyola_University_Chicago_reporter96 Northern red oak Quercus rubra Leaves Changing Color (Middle) 41.999700000000000 -87.656800000000000 23887
Wed Nov 20 00:00:00 GMT 2013 UCSF_137_F13_Loyola_University_Chicago_reporter96 Northern red oak Quercus rubra Leaves Changing Color (Late) 41.999700000000000 -87.656800000000000 23886
Tue Oct 08 00:00:00 GMT 2013 UCSF_137_F13_Loyola_University_Chicago_reporter150 Northern red oak Quercus rubra Leaves Unfolding (Early) 41.998600000000000 -87.656600000000000 24010
Thu Oct 31 00:00:00 GMT 2013 UCSF_137_F13_Loyola_University_Chicago_reporter150 Northern red oak Quercus rubra Leaves Unfolding (Late) 41.998600000000000 -87.656600000000000 24011
Wed Nov 20 00:00:00 GMT 2013 UCSF_137_F13_Loyola_University_Chicago_reporter150 Northern red oak Quercus rubra Leaves Dropping (Late) 41.998600000000000 -87.656600000000000 24012
Wed Oct 23 00:00:00 GMT 2013 UCSF_137_F13_Loyola_University_Chicago_reporter150 Northern red oak Quercus rubra Leaves Changing Color (Middle) 41.998600000000000 -87.656600000000000 24008
Thu Oct 31 00:00:00 GMT 2013 UCSF_137_F13_Loyola_University_Chicago_reporter150 Northern red oak Quercus rubra Leaves Changing Color (Late) 41.998600000000000 -87.656600000000000 24009
Thu Oct 10 00:00:00 GMT 2013 UCSF_137_F13_Loyola_University_Chicago_reporter110 Northern red oak Quercus rubra Leaves Changing Color (Early) 41.999800000000000 -87.656700000000000 24031
Fri Nov 01 00:00:00 GMT 2013 sinthang_Harding_High_School_reporter30 Northern red oak Quercus rubra 50% Color 44.956800000000000 -93.035300000000000 24639
Fri Nov 08 00:00:00 GMT 2013 sinthang_Harding_High_School_reporter30 Northern red oak Quercus rubra 50% Leaf Fall 44.956800000000000 -93.035300000000000 24640
Fri Nov 01 00:00:00 GMT 2013 sinthang_Harding_High_School_reporter45 Northern red oak Quercus rubra 50% Color 44.956800000000000 -93.035300000000000 24641
Fri Nov 08 00:00:00 GMT 2013 sinthang_Harding_High_School_reporter45 Northern red oak Quercus rubra 50% Leaf Fall 44.956800000000000 -93.035300000000000 24642
Fri Nov 01 00:00:00 GMT 2013 sinthang_Harding_High_School_reporter46 Northern red oak Quercus rubra 50% Color 44.956800000000000 -93.035300000000000 24646
Fri Nov 08 00:00:00 GMT 2013 sinthang_Harding_High_School_reporter46 Northern red oak Quercus rubra 50% Leaf Fall 44.956800000000000 -93.035300000000000 24647
Fri Nov 01 00:00:00 GMT 2013 sinthang_Harding_High_School_reporter31 Northern red oak Quercus rubra 50% Color 44.956800000000000 -93.035300000000000 24643
Fri Nov 08 00:00:00 GMT 2013 sinthang_Harding_High_School_reporter31 Northern red oak Quercus rubra 50% Leaf Fall 44.956800000000000 -93.035300000000000 24644
Fri Nov 01 00:00:00 GMT 2013 sinthang_Harding_High_School_reporter32 Northern red oak Quercus rubra 50% Color 44.956800000000000 -93.035300000000000 24633
Fri Nov 08 00:00:00 GMT 2013 sinthang_Harding_High_School_reporter32 Northern red oak Quercus rubra 50% Leaf Fall 44.956800000000000 -93.035300000000000 24634
Fri Nov 01 00:00:00 GMT 2013 sinthang_Harding_High_School_reporter36 Northern red oak Quercus rubra 50% Color 44.956800000000000 -93.035300000000000 24637
Fri Nov 22 00:00:00 GMT 2013 sinthang_Harding_High_School_reporter36 Northern red oak Quercus rubra 50% Leaf Fall 44.956800000000000 -93.035300000000000 24638
Wed Nov 06 00:00:00 GMT 2013 lakekatherine Northern red oak Quercus rubra Leaves Unfolding (None) 41.677000000000000 -87.801600000000000 24951
Wed Nov 06 00:00:00 GMT 2013 lakekatherine Northern red oak Quercus rubra Leaves Changing Color (Late) 41.677000000000000 -87.801600000000000 24952
Wed Nov 06 00:00:00 GMT 2013 lakekatherine Northern red oak Quercus rubra Leaves Dropping (Early) 41.677000000000000 -87.801600000000000 24953
Wed Nov 06 00:00:00 GMT 2013 lakekatherine Northern red oak Quercus rubra Flowers (None) 41.677000000000000 -87.801600000000000 24954
Wed Nov 06 00:00:00 GMT 2013 lakekatherine Northern red oak Quercus rubra Fruit (None) 41.677000000000000 -87.801600000000000 24955
Mon Mar 31 00:00:00 GMT 2014 audstuck Northern red oak Quercus rubra Bud Burst 39.165915000000000 -86.520317000000000 28865
Fri May 02 00:00:00 GMT 2014 mpgooley Northern red oak Quercus rubra Bud Burst 42.358800000000000 -71.250500000000000 31459
Wed Apr 30 00:00:00 GMT 2014 laurob_St._John's_University__reporter6 Northern red oak Quercus rubra Bud Burst 40.721400000000000 -73.793200000000000 31668
Thu May 01 00:00:00 GMT 2014 laurob_St._John's_University__reporter6 Northern red oak Quercus rubra First Leaf 40.721400000000000 -73.793200000000000 31669
Wed May 07 00:00:00 GMT 2014 laurob_St._John's_University__reporter6 Northern red oak Quercus rubra All Leaves Unfolded 40.721400000000000 -73.793200000000000 31670
Thu May 01 00:00:00 GMT 2014 laurob_St._John's_University__reporter6 Northern red oak Quercus rubra First Flower 40.721400000000000 -73.793200000000000 31671
Tue Mar 18 00:00:00 GMT 2014 laurob_St._John's_University__reporter6 Northern red oak Quercus rubra Leaves Unfolding (None) 40.430870000000000 -73.478460000000000 31784
Tue Mar 18 00:00:00 GMT 2014 laurob_St._John's_University__reporter6 Northern red oak Quercus rubra Leaves Unfolding (None) 40.430870000000000 -73.478460000000000 31785
Tue Mar 18 00:00:00 GMT 2014 laurob_St._John's_University__reporter6 Northern red oak Quercus rubra Leaves Changing Color (None) 40.430870000000000 -73.478460000000000 31786
Tue Mar 18 00:00:00 GMT 2014 laurob_St._John's_University__reporter6 Northern red oak Quercus rubra Leaves Changing Color (None) 40.430870000000000 -73.478460000000000 31787
Tue Mar 18 00:00:00 GMT 2014 laurob_St._John's_University__reporter6 Northern red oak Quercus rubra Leaves Dropping (None) 40.430870000000000 -73.478460000000000 31788
Tue Mar 18 00:00:00 GMT 2014 laurob_St._John's_University__reporter6 Northern red oak Quercus rubra Leaves Dropping (None) 40.430870000000000 -73.478460000000000 31789
Tue Mar 18 00:00:00 GMT 2014 laurob_St._John's_University__reporter6 Northern red oak Quercus rubra Flowers (None) 40.430870000000000 -73.478460000000000 31790
Tue Mar 18 00:00:00 GMT 2014 laurob_St._John's_University__reporter6 Northern red oak Quercus rubra Fruit (None) 40.430870000000000 -73.478460000000000 31791
Tue Mar 18 00:00:00 GMT 2014 laurob_St._John's_University__reporter6 Northern red oak Quercus rubra Flowers (None) 40.430870000000000 -73.478460000000000 31792
Tue Mar 18 00:00:00 GMT 2014 laurob_St._John's_University__reporter6 Northern red oak Quercus rubra Fruit (None) 40.430870000000000 -73.478460000000000 31793
Tue Mar 04 00:00:00 GMT 2014 bhartn3 Northern red oak Quercus rubra Bud Burst 39.401500000000000 -76.601910000000000 32233
Mon Apr 21 00:00:00 GMT 2014 bhartn3 Northern red oak Quercus rubra First Leaf 39.401500000000000 -76.601910000000000 32234
Thu Apr 24 00:00:00 GMT 2014 bhartn3 Northern red oak Quercus rubra All Leaves Unfolded 39.401500000000000 -76.601910000000000 32235
Mon Apr 14 00:00:00 GMT 2014 bhartn3 Northern red oak Quercus rubra First Flower 39.401500000000000 -76.601910000000000 32236
Thu Apr 17 00:00:00 GMT 2014 bhartn3 Northern red oak Quercus rubra Full Flower 39.401500000000000 -76.601910000000000 32237
Mon May 12 00:00:00 GMT 2014 MsFBLA_BLA-Laviscount_Park_reporter4 Northern red oak Quercus rubra First Flower 42.316575000000000 -71.086242000000000 32754
Tue May 20 00:00:00 GMT 2014 MsFBLA_BLA-Laviscount_Park_reporter4 Northern red oak Quercus rubra Full Flower 42.316575000000000 -71.086242000000000 32755
Thu Oct 10 00:00:00 GMT 2013 MsFBLA_BLA-Laviscount_Park_reporter4 Northern red oak Quercus rubra 50% Color 42.316575000000000 -71.086242000000000 32756
Thu Oct 24 00:00:00 GMT 2013 MsFBLA_BLA-Laviscount_Park_reporter4 Northern red oak Quercus rubra 50% Leaf Fall 42.316575000000000 -71.086242000000000 32757
Fri Apr 18 00:00:00 GMT 2014 MsFBLA_BLA-Laviscount_Park_reporter4 Northern red oak Quercus rubra Bud Burst 42.316575000000000 -71.086242000000000 32751
Thu Apr 24 00:00:00 GMT 2014 MsFBLA_BLA-Laviscount_Park_reporter4 Northern red oak Quercus rubra First Leaf 42.316575000000000 -71.086242000000000 32752
Tue May 06 00:00:00 GMT 2014 MsFBLA_BLA-Laviscount_Park_reporter4 Northern red oak Quercus rubra All Leaves Unfolded 42.316575000000000 -71.086242000000000 32753
Thu May 22 00:00:00 GMT 2014 olirengo Northern red oak Quercus rubra Bud Burst 46.679339000000000 -92.327535000000000 32841
Fri Oct 11 00:00:00 GMT 2013 scientistsin7thgrade Northern red oak Quercus rubra 50% Color 42.742900000000000 -84.474000000000000 33568
Fri Oct 11 00:00:00 GMT 2013 scientistsin7thgrade Northern red oak Quercus rubra 50% Color 42.742900000000000 -84.474000000000000 33569
Fri Oct 11 00:00:00 GMT 2013 scientistsin7thgrade Northern red oak Quercus rubra 50% Color 42.742900000000000 -84.474000000000000 33570
Fri Oct 11 00:00:00 GMT 2013 scientistsin7thgrade Northern red oak Quercus rubra 50% Color 42.742900000000000 -84.474000000000000 33571
Fri Aug 29 00:00:00 GMT 2014 MrsByers_RHAM_Middle_School_reporter3 Northern red oak Quercus rubra All Leaves Unfolded 41.663800000000000 -72.364400000000000 35120
Mon Sep 01 00:00:00 GMT 2014 cbbartle Northern red oak Quercus rubra All Leaves Unfolded 39.168866000000000 -86.545272000000000 35171
Mon Sep 01 00:00:00 GMT 2014 cbbartle Northern red oak Quercus rubra First Leaf 39.166940000000000 -86.546150000000000 35169
Mon Sep 01 00:00:00 GMT 2014 cbbartle Northern red oak Quercus rubra All Leaves Unfolded 39.166940000000000 -86.546150000000000 35170
Tue Sep 09 00:00:00 GMT 2014 cwetzel Northern red oak Quercus rubra Leaves Unfolding (None) 42.381781000000000 -72.760008000000000 35240
Tue Sep 09 00:00:00 GMT 2014 cwetzel Northern red oak Quercus rubra Leaves Changing Color (None) 42.381781000000000 -72.760008000000000 35241
Tue Sep 09 00:00:00 GMT 2014 cwetzel Northern red oak Quercus rubra Leaves Dropping (None) 42.381781000000000 -72.760008000000000 35242
Tue Sep 09 00:00:00 GMT 2014 cwetzel Northern red oak Quercus rubra Flowers (None) 42.381781000000000 -72.760008000000000 35243
Tue Sep 09 00:00:00 GMT 2014 cwetzel Northern red oak Quercus rubra Fruit (Middle) 42.381781000000000 -72.760008000000000 35244
Wed Sep 10 00:00:00 GMT 2014 hromanwalters802 Northern red oak Quercus rubra Leaves Unfolding (None) 42.335660000000000 -72.652310000000000 35257
Wed Sep 10 00:00:00 GMT 2014 hromanwalters802 Northern red oak Quercus rubra Leaves Changing Color (None) 42.335660000000000 -72.652310000000000 35258
Wed Sep 10 00:00:00 GMT 2014 hromanwalters802 Northern red oak Quercus rubra Leaves Dropping (Early) 42.335660000000000 -72.652310000000000 35259
Wed Sep 10 00:00:00 GMT 2014 hromanwalters802 Northern red oak Quercus rubra Flowers (None) 42.335660000000000 -72.652310000000000 35260
Wed Sep 10 00:00:00 GMT 2014 hromanwalters802 Northern red oak Quercus rubra Fruit (Middle) 42.335660000000000 -72.652310000000000 35261
Tue Sep 16 00:00:00 GMT 2014 jlsnyder335_4H_reporter27 Northern red oak Quercus rubra Leaves Unfolding (Late) 35.742710000000000 -79.173580000000000 35413
Tue Sep 16 00:00:00 GMT 2014 jlsnyder335_4H_reporter27 Northern red oak Quercus rubra Leaves Changing Color (None) 35.742710000000000 -79.173580000000000 35414
Tue Sep 16 00:00:00 GMT 2014 jlsnyder335_4H_reporter27 Northern red oak Quercus rubra Leaves Dropping (None) 35.742710000000000 -79.173580000000000 35415
Tue Sep 16 00:00:00 GMT 2014 jlsnyder335_4H_reporter27 Northern red oak Quercus rubra Flowers (None) 35.742710000000000 -79.173580000000000 35416
Tue Sep 16 00:00:00 GMT 2014 jlsnyder335_4H_reporter27 Northern red oak Quercus rubra Fruit (None) 35.742710000000000 -79.173580000000000 35417
Sat Sep 20 00:00:00 GMT 2014 hromanwalters802 Northern red oak Quercus rubra Leaves Unfolding (None) 42.335660000000000 -72.652310000000000 35483
Sat Sep 20 00:00:00 GMT 2014 hromanwalters802 Northern red oak Quercus rubra Leaves Changing Color (None) 42.335660000000000 -72.652310000000000 35484
Sat Sep 20 00:00:00 GMT 2014 hromanwalters802 Northern red oak Quercus rubra Leaves Dropping (Early) 42.335660000000000 -72.652310000000000 35485
Sat Sep 20 00:00:00 GMT 2014 hromanwalters802 Northern red oak Quercus rubra Flowers (None) 42.335660000000000 -72.652310000000000 35486
Sat Sep 20 00:00:00 GMT 2014 hromanwalters802 Northern red oak Quercus rubra Fruit (Late) 42.335660000000000 -72.652310000000000 35487
Wed Sep 24 00:00:00 GMT 2014 KChapman Northern red oak Quercus rubra Leaves Unfolding (Late) 41.676944000000000 -87.802500000000000 35692
Wed Sep 24 00:00:00 GMT 2014 KChapman Northern red oak Quercus rubra Leaves Changing Color (Early) 41.676944000000000 -87.802500000000000 35693
Wed Sep 24 00:00:00 GMT 2014 KChapman Northern red oak Quercus rubra Leaves Dropping (Early) 41.676944000000000 -87.802500000000000 35694
Wed Sep 24 00:00:00 GMT 2014 KChapman Northern red oak Quercus rubra Flowers (None) 41.676944000000000 -87.802500000000000 35695
Wed Sep 24 00:00:00 GMT 2014 KChapman Northern red oak Quercus rubra Fruit (Late) 41.676944000000000 -87.802500000000000 35696
Sat Sep 27 00:00:00 GMT 2014 esmith0338 Northern red oak Quercus rubra Leaves Unfolding (None) 37.447640000000000 -86.905240000000000 35724
Sat Sep 27 00:00:00 GMT 2014 esmith0338 Northern red oak Quercus rubra Leaves Changing Color (None) 37.447640000000000 -86.905240000000000 35725
Sat Sep 27 00:00:00 GMT 2014 esmith0338 Northern red oak Quercus rubra Leaves Dropping (None) 37.447640000000000 -86.905240000000000 35726
Sat Sep 27 00:00:00 GMT 2014 esmith0338 Northern red oak Quercus rubra Flowers (Early) 37.447640000000000 -86.905240000000000 35727
Sat Sep 27 00:00:00 GMT 2014 esmith0338 Northern red oak Quercus rubra Fruit (None) 37.447640000000000 -86.905240000000000 35728
Sun Sep 28 00:00:00 GMT 2014 hromanwalters802 Northern red oak Quercus rubra Leaves Unfolding (None) 42.335443000000000 -72.651064000000000 35774
Sun Sep 28 00:00:00 GMT 2014 hromanwalters802 Northern red oak Quercus rubra Leaves Changing Color (None) 42.335443000000000 -72.651064000000000 35775
Sun Sep 28 00:00:00 GMT 2014 hromanwalters802 Northern red oak Quercus rubra Leaves Dropping (Early) 42.335443000000000 -72.651064000000000 35776
Sun Sep 28 00:00:00 GMT 2014 hromanwalters802 Northern red oak Quercus rubra Flowers (None) 42.335443000000000 -72.651064000000000 35777
Sun Sep 28 00:00:00 GMT 2014 hromanwalters802 Northern red oak Quercus rubra Fruit (Late) 42.335443000000000 -72.651064000000000 35778
Mon Sep 29 00:00:00 GMT 2014 esmith0338 Northern red oak Quercus rubra Leaves Unfolding (None) 37.450860000000000 -86.898580000000000 35933
Mon Sep 29 00:00:00 GMT 2014 esmith0338 Northern red oak Quercus rubra Leaves Changing Color (None) 37.450860000000000 -86.898580000000000 35934
Mon Sep 29 00:00:00 GMT 2014 esmith0338 Northern red oak Quercus rubra Leaves Dropping (Early) 37.450860000000000 -86.898580000000000 35935
Mon Sep 29 00:00:00 GMT 2014 esmith0338 Northern red oak Quercus rubra Flowers (None) 37.450860000000000 -86.898580000000000 35936
Mon Sep 29 00:00:00 GMT 2014 esmith0338 Northern red oak Quercus rubra Fruit (None) 37.450860000000000 -86.898580000000000 35937
Wed Oct 01 00:00:00 GMT 2014 esmith0338 Northern red oak Quercus rubra Leaves Unfolding (None) 37.450940000000000 -86.898570000000000 35938
Wed Oct 01 00:00:00 GMT 2014 esmith0338 Northern red oak Quercus rubra Leaves Changing Color (Middle) 37.450940000000000 -86.898570000000000 35939
Wed Oct 01 00:00:00 GMT 2014 esmith0338 Northern red oak Quercus rubra Leaves Dropping (Early) 37.450940000000000 -86.898570000000000 35940
Wed Oct 01 00:00:00 GMT 2014 esmith0338 Northern red oak Quercus rubra Flowers (None) 37.450940000000000 -86.898570000000000 35941
Wed Oct 01 00:00:00 GMT 2014 esmith0338 Northern red oak Quercus rubra Fruit (None) 37.450940000000000 -86.898570000000000 35942
Fri Oct 03 00:00:00 GMT 2014 hromanwalters802 Northern red oak Quercus rubra Leaves Unfolding (None) 42.335628000000000 -72.651150000000000 35988
Fri Oct 03 00:00:00 GMT 2014 hromanwalters802 Northern red oak Quercus rubra Leaves Changing Color (Early) 42.335628000000000 -72.651150000000000 35989
Fri Oct 03 00:00:00 GMT 2014 hromanwalters802 Northern red oak Quercus rubra Leaves Dropping (Early) 42.335628000000000 -72.651150000000000 35990
Fri Oct 03 00:00:00 GMT 2014 hromanwalters802 Northern red oak Quercus rubra Flowers (None) 42.335628000000000 -72.651150000000000 35991
Fri Oct 03 00:00:00 GMT 2014 hromanwalters802 Northern red oak Quercus rubra Fruit (None) 42.335628000000000 -72.651150000000000 35992
Sun Aug 03 00:00:00 GMT 2014 MLoose Northern red oak Quercus rubra Full Fruiting 38.023100000000000 -78.357900000000000 36111
Mon Oct 06 00:00:00 GMT 2014 esmith0338 Northern red oak Quercus rubra Leaves Unfolding (None) 37.450940000000000 -86.898570000000000 36242
Mon Oct 06 00:00:00 GMT 2014 esmith0338 Northern red oak Quercus rubra Leaves Changing Color (Early) 37.450940000000000 -86.898570000000000 36243
Mon Oct 06 00:00:00 GMT 2014 esmith0338 Northern red oak Quercus rubra Leaves Dropping (Early) 37.450940000000000 -86.898570000000000 36244
Mon Oct 06 00:00:00 GMT 2014 esmith0338 Northern red oak Quercus rubra Flowers (None) 37.450940000000000 -86.898570000000000 36245
Mon Oct 06 00:00:00 GMT 2014 esmith0338 Northern red oak Quercus rubra Fruit (None) 37.450940000000000 -86.898570000000000 36246
Wed Oct 08 00:00:00 GMT 2014 KChapman Northern red oak Quercus rubra Leaves Unfolding (Late) 41.676944000000000 -87.802500000000000 36446
Wed Oct 08 00:00:00 GMT 2014 KChapman Northern red oak Quercus rubra Leaves Changing Color (Early) 41.676944000000000 -87.802500000000000 36447
Wed Oct 08 00:00:00 GMT 2014 KChapman Northern red oak Quercus rubra Leaves Dropping (Early) 41.676944000000000 -87.802500000000000 36448
Wed Oct 08 00:00:00 GMT 2014 KChapman Northern red oak Quercus rubra Flowers (None) 41.676944000000000 -87.802500000000000 36449
Wed Oct 08 00:00:00 GMT 2014 KChapman Northern red oak Quercus rubra Fruit (None) 41.676944000000000 -87.802500000000000 36450
Wed Oct 08 00:00:00 GMT 2014 KChapman Northern red oak Quercus rubra Leaves Unfolding (Late) 41.677500000000000 -87.805556000000000 36451
Wed Oct 08 00:00:00 GMT 2014 KChapman Northern red oak Quercus rubra Leaves Changing Color (Early) 41.677500000000000 -87.805556000000000 36452
Wed Oct 08 00:00:00 GMT 2014 KChapman Northern red oak Quercus rubra Leaves Dropping (Early) 41.677500000000000 -87.805556000000000 36453
Wed Oct 08 00:00:00 GMT 2014 KChapman Northern red oak Quercus rubra Flowers (None) 41.677500000000000 -87.805556000000000 36454
Wed Oct 08 00:00:00 GMT 2014 KChapman Northern red oak Quercus rubra Fruit (None) 41.677500000000000 -87.805556000000000 36455
Wed Oct 08 00:00:00 GMT 2014 KChapman Northern red oak Quercus rubra Leaves Unfolding (Late) 41.676944000000000 -87.802778000000000 36461
Wed Oct 08 00:00:00 GMT 2014 KChapman Northern red oak Quercus rubra Leaves Changing Color (Early) 41.676944000000000 -87.802778000000000 36462
Wed Oct 08 00:00:00 GMT 2014 KChapman Northern red oak Quercus rubra Leaves Dropping (None) 41.676944000000000 -87.802778000000000 36463
Wed Oct 08 00:00:00 GMT 2014 KChapman Northern red oak Quercus rubra Flowers (None) 41.676944000000000 -87.802778000000000 36464
Wed Oct 08 00:00:00 GMT 2014 KChapman Northern red oak Quercus rubra Fruit (None) 41.676944000000000 -87.802778000000000 36465
Wed Oct 08 00:00:00 GMT 2014 skp0005 Northern red oak Quercus rubra Leaves Unfolding (None) 37.243900000000000 -85.290350000000000 36466
Wed Oct 08 00:00:00 GMT 2014 skp0005 Northern red oak Quercus rubra Leaves Changing Color (Early) 37.243900000000000 -85.290350000000000 36467
Wed Oct 08 00:00:00 GMT 2014 skp0005 Northern red oak Quercus rubra Leaves Dropping (Early) 37.243900000000000 -85.290350000000000 36468
Wed Oct 08 00:00:00 GMT 2014 skp0005 Northern red oak Quercus rubra Flowers (None) 37.243900000000000 -85.290350000000000 36469
Wed Oct 08 00:00:00 GMT 2014 skp0005 Northern red oak Quercus rubra Fruit (None) 37.243900000000000 -85.290350000000000 36470
Thu Oct 09 00:00:00 GMT 2014 esmith0338 Northern red oak Quercus rubra Leaves Unfolding (None) 37.453070000000000 -86.898220000000000 36483
Thu Oct 09 00:00:00 GMT 2014 esmith0338 Northern red oak Quercus rubra Leaves Changing Color (Early) 37.453070000000000 -86.898220000000000 36484
Thu Oct 09 00:00:00 GMT 2014 esmith0338 Northern red oak Quercus rubra Leaves Dropping (Early) 37.453070000000000 -86.898220000000000 36485
Thu Oct 09 00:00:00 GMT 2014 esmith0338 Northern red oak Quercus rubra Flowers (None) 37.453070000000000 -86.898220000000000 36486
Thu Oct 09 00:00:00 GMT 2014 esmith0338 Northern red oak Quercus rubra Fruit (None) 37.453070000000000 -86.898220000000000 36487
Fri Oct 10 00:00:00 GMT 2014 esmith0338 Northern red oak Quercus rubra Leaves Unfolding (None) 37.453070000000000 -86.898220000000000 36698
Fri Oct 10 00:00:00 GMT 2014 esmith0338 Northern red oak Quercus rubra Leaves Changing Color (Early) 37.453070000000000 -86.898220000000000 36699
Fri Oct 10 00:00:00 GMT 2014 esmith0338 Northern red oak Quercus rubra Leaves Dropping (Early) 37.453070000000000 -86.898220000000000 36700
Fri Oct 10 00:00:00 GMT 2014 esmith0338 Northern red oak Quercus rubra Flowers (None) 37.453070000000000 -86.898220000000000 36701
Fri Oct 10 00:00:00 GMT 2014 esmith0338 Northern red oak Quercus rubra Fruit (None) 37.453070000000000 -86.898220000000000 36702
Sat Oct 11 00:00:00 GMT 2014 hromanwalters802 Northern red oak Quercus rubra Leaves Unfolding (None) 42.335665000000000 -72.651107000000000 36719
Sat Oct 11 00:00:00 GMT 2014 hromanwalters802 Northern red oak Quercus rubra Leaves Changing Color (Middle) 42.335665000000000 -72.651107000000000 36720
Sat Oct 11 00:00:00 GMT 2014 hromanwalters802 Northern red oak Quercus rubra Leaves Dropping (Early) 42.335665000000000 -72.651107000000000 36721
Sat Oct 11 00:00:00 GMT 2014 hromanwalters802 Northern red oak Quercus rubra Flowers (None) 42.335665000000000 -72.651107000000000 36722
Sat Oct 11 00:00:00 GMT 2014 hromanwalters802 Northern red oak Quercus rubra Fruit (Late) 42.335665000000000 -72.651107000000000 36723
Sun Oct 12 00:00:00 GMT 2014 skp0005 Northern red oak Quercus rubra Leaves Unfolding (Early) 40.000000000000000 -100.000000000000000 36929
Sun Oct 12 00:00:00 GMT 2014 skp0005 Northern red oak Quercus rubra Leaves Changing Color (Early) 40.000000000000000 -100.000000000000000 36930
Sun Oct 12 00:00:00 GMT 2014 skp0005 Northern red oak Quercus rubra Leaves Dropping (Middle) 40.000000000000000 -100.000000000000000 36931
Sun Oct 12 00:00:00 GMT 2014 skp0005 Northern red oak Quercus rubra Flowers (None) 40.000000000000000 -100.000000000000000 36932
Sun Oct 12 00:00:00 GMT 2014 skp0005 Northern red oak Quercus rubra Fruit (None) 40.000000000000000 -100.000000000000000 36933
Mon Oct 13 00:00:00 GMT 2014 esmith0338 Northern red oak Quercus rubra Leaves Unfolding (None) 37.453070000000000 -86.898220000000000 37065
Mon Oct 13 00:00:00 GMT 2014 esmith0338 Northern red oak Quercus rubra Leaves Changing Color (Early) 37.453070000000000 -86.898220000000000 37066
Mon Oct 13 00:00:00 GMT 2014 esmith0338 Northern red oak Quercus rubra Leaves Dropping (Early) 37.453070000000000 -86.898220000000000 37067
Mon Oct 13 00:00:00 GMT 2014 esmith0338 Northern red oak Quercus rubra Flowers (None) 37.453070000000000 -86.898220000000000 37068
Mon Oct 13 00:00:00 GMT 2014 esmith0338 Northern red oak Quercus rubra Fruit (None) 37.453070000000000 -86.898220000000000 37069
Wed Oct 15 00:00:00 GMT 2014 hromanwalters802 Northern red oak Quercus rubra Leaves Unfolding (None) 42.335570000000000 -72.651064000000000 37279
Wed Oct 15 00:00:00 GMT 2014 hromanwalters802 Northern red oak Quercus rubra Leaves Changing Color (Middle) 42.335570000000000 -72.651064000000000 37280
Wed Oct 15 00:00:00 GMT 2014 hromanwalters802 Northern red oak Quercus rubra Leaves Dropping (Middle) 42.335570000000000 -72.651064000000000 37281
Wed Oct 15 00:00:00 GMT 2014 hromanwalters802 Northern red oak Quercus rubra Flowers (None) 42.335570000000000 -72.651064000000000 37282
Wed Oct 15 00:00:00 GMT 2014 hromanwalters802 Northern red oak Quercus rubra Fruit (None) 42.335570000000000 -72.651064000000000 37283
Wed Oct 15 00:00:00 GMT 2014 KChapman Northern red oak Quercus rubra Leaves Unfolding (Late) 41.676944000000000 -87.802500000000000 37616
Wed Oct 15 00:00:00 GMT 2014 KChapman Northern red oak Quercus rubra Leaves Changing Color (Early) 41.676944000000000 -87.802500000000000 37617
Wed Oct 15 00:00:00 GMT 2014 KChapman Northern red oak Quercus rubra Leaves Dropping (Early) 41.676944000000000 -87.802500000000000 37618
Wed Oct 15 00:00:00 GMT 2014 KChapman Northern red oak Quercus rubra Flowers (None) 41.676944000000000 -87.802500000000000 37619
Wed Oct 15 00:00:00 GMT 2014 KChapman Northern red oak Quercus rubra Fruit (None) 41.676944000000000 -87.802500000000000 37620
Wed Oct 15 00:00:00 GMT 2014 KChapman Northern red oak Quercus rubra Leaves Unfolding (Late) 41.677500000000000 -87.805556000000000 37626
Wed Oct 15 00:00:00 GMT 2014 KChapman Northern red oak Quercus rubra Leaves Changing Color (Late) 41.677500000000000 -87.805556000000000 37627
Wed Oct 15 00:00:00 GMT 2014 KChapman Northern red oak Quercus rubra Leaves Dropping (None) 41.677500000000000 -87.805556000000000 37628
Wed Oct 15 00:00:00 GMT 2014 KChapman Northern red oak Quercus rubra Flowers (None) 41.677500000000000 -87.805556000000000 37629
Wed Oct 15 00:00:00 GMT 2014 KChapman Northern red oak Quercus rubra Fruit (None) 41.677500000000000 -87.805556000000000 37630
Wed Oct 15 00:00:00 GMT 2014 KChapman Northern red oak Quercus rubra Leaves Unfolding (Late) 41.676944000000000 -87.802778000000000 37621
Wed Oct 15 00:00:00 GMT 2014 KChapman Northern red oak Quercus rubra Leaves Changing Color (Late) 41.676944000000000 -87.802778000000000 37622
Wed Oct 15 00:00:00 GMT 2014 KChapman Northern red oak Quercus rubra Leaves Dropping (None) 41.676944000000000 -87.802778000000000 37623
Wed Oct 15 00:00:00 GMT 2014 KChapman Northern red oak Quercus rubra Flowers (None) 41.676944000000000 -87.802778000000000 37624
Wed Oct 15 00:00:00 GMT 2014 KChapman Northern red oak Quercus rubra Fruit (None) 41.676944000000000 -87.802778000000000 37625
Fri Oct 17 00:00:00 GMT 2014 rshuman Northern red oak Quercus rubra Leaves Unfolding (Late) 44.690290000000000 -73.611030000000000 37772
Fri Oct 17 00:00:00 GMT 2014 rshuman Northern red oak Quercus rubra Leaves Changing Color (Middle) 44.690290000000000 -73.611030000000000 37773
Fri Oct 17 00:00:00 GMT 2014 rshuman Northern red oak Quercus rubra Leaves Dropping (Middle) 44.690290000000000 -73.611030000000000 37774
Fri Oct 17 00:00:00 GMT 2014 rshuman Northern red oak Quercus rubra Flowers (None) 44.690290000000000 -73.611030000000000 37775
Fri Oct 17 00:00:00 GMT 2014 rshuman Northern red oak Quercus rubra Fruit (Late) 44.690290000000000 -73.611030000000000 37776
Sat Oct 04 00:00:00 GMT 2014 rshuman Northern red oak Quercus rubra Leaves Unfolding (Late) 44.712080000000000 -73.615410000000000 37727
Sat Oct 04 00:00:00 GMT 2014 rshuman Northern red oak Quercus rubra Leaves Changing Color (Middle) 44.712080000000000 -73.615410000000000 37728
Sat Oct 04 00:00:00 GMT 2014 rshuman Northern red oak Quercus rubra Leaves Dropping (Early) 44.712080000000000 -73.615410000000000 37729
Sat Oct 04 00:00:00 GMT 2014 rshuman Northern red oak Quercus rubra Flowers (None) 44.712080000000000 -73.615410000000000 37730
Sat Oct 04 00:00:00 GMT 2014 rshuman Northern red oak Quercus rubra Fruit (None) 44.712080000000000 -73.615410000000000 37731
Fri Oct 17 00:00:00 GMT 2014 rshuman Northern red oak Quercus rubra Leaves Unfolding (Late) 44.708916000000000 -73.589598000000000 38421
Fri Oct 17 00:00:00 GMT 2014 rshuman Northern red oak Quercus rubra Leaves Changing Color (Middle) 44.708916000000000 -73.589598000000000 38422
Fri Oct 17 00:00:00 GMT 2014 rshuman Northern red oak Quercus rubra Leaves Dropping (Middle) 44.708916000000000 -73.589598000000000 38423
Fri Oct 17 00:00:00 GMT 2014 rshuman Northern red oak Quercus rubra Flowers (Late) 44.708916000000000 -73.589598000000000 38424
Fri Oct 17 00:00:00 GMT 2014 rshuman Northern red oak Quercus rubra Fruit (Middle) 44.708916000000000 -73.589598000000000 38425
Fri Oct 17 00:00:00 GMT 2014 rshuman Northern red oak Quercus rubra Leaves Unfolding (Early) 44.709280000000000 -73.597020000000000 38445
Fri Oct 17 00:00:00 GMT 2014 rshuman Northern red oak Quercus rubra Leaves Changing Color (Early) 44.709280000000000 -73.597020000000000 38446
Fri Oct 17 00:00:00 GMT 2014 rshuman Northern red oak Quercus rubra Leaves Dropping (Early) 44.709280000000000 -73.597020000000000 38447
Fri Oct 17 00:00:00 GMT 2014 rshuman Northern red oak Quercus rubra Flowers (None) 44.709280000000000 -73.597020000000000 38448
Fri Oct 17 00:00:00 GMT 2014 rshuman Northern red oak Quercus rubra Fruit (Middle) 44.709280000000000 -73.597020000000000 38449
Fri Oct 17 00:00:00 GMT 2014 rshuman Northern red oak Quercus rubra Leaves Unfolding (Late) 44.689750000000000 -73.568370000000000 38738
Fri Oct 17 00:00:00 GMT 2014 rshuman Northern red oak Quercus rubra Leaves Changing Color (Middle) 44.689750000000000 -73.568370000000000 38739
Fri Oct 17 00:00:00 GMT 2014 rshuman Northern red oak Quercus rubra Leaves Dropping (Middle) 44.689750000000000 -73.568370000000000 38740
Fri Oct 17 00:00:00 GMT 2014 rshuman Northern red oak Quercus rubra Flowers (None) 44.689750000000000 -73.568370000000000 38741
Fri Oct 17 00:00:00 GMT 2014 rshuman Northern red oak Quercus rubra Fruit (None) 44.689750000000000 -73.568370000000000 38742
Fri Oct 24 00:00:00 GMT 2014 hromanwalters802 Northern red oak Quercus rubra Leaves Unfolding (None) 42.335697000000000 -72.651064000000000 39329
Fri Oct 24 00:00:00 GMT 2014 hromanwalters802 Northern red oak Quercus rubra Leaves Changing Color (Middle) 42.335697000000000 -72.651064000000000 39330
Fri Oct 24 00:00:00 GMT 2014 hromanwalters802 Northern red oak Quercus rubra Leaves Dropping (Middle) 42.335697000000000 -72.651064000000000 39331
Fri Oct 24 00:00:00 GMT 2014 hromanwalters802 Northern red oak Quercus rubra Flowers (None) 42.335697000000000 -72.651064000000000 39332
Fri Oct 24 00:00:00 GMT 2014 hromanwalters802 Northern red oak Quercus rubra Fruit (None) 42.335697000000000 -72.651064000000000 39333
Tue Oct 28 00:00:00 GMT 2014 esmith0338 Northern red oak Quercus rubra Leaves Unfolding (None) 37.453070000000000 -86.898220000000000 39471
Tue Oct 28 00:00:00 GMT 2014 esmith0338 Northern red oak Quercus rubra Leaves Changing Color (Middle) 37.453070000000000 -86.898220000000000 39472
Tue Oct 28 00:00:00 GMT 2014 esmith0338 Northern red oak Quercus rubra Leaves Dropping (Early) 37.453070000000000 -86.898220000000000 39473
Tue Oct 28 00:00:00 GMT 2014 esmith0338 Northern red oak Quercus rubra Flowers (None) 37.453070000000000 -86.898220000000000 39474
Tue Oct 28 00:00:00 GMT 2014 esmith0338 Northern red oak Quercus rubra Fruit (None) 37.453070000000000 -86.898220000000000 39475
Wed Oct 22 00:00:00 GMT 2014 KChapman Northern red oak Quercus rubra Leaves Unfolding (Late) 41.676944000000000 -87.802778000000000 39743
Wed Oct 22 00:00:00 GMT 2014 KChapman Northern red oak Quercus rubra Leaves Changing Color (Late) 41.676944000000000 -87.802778000000000 39744
Wed Oct 22 00:00:00 GMT 2014 KChapman Northern red oak Quercus rubra Leaves Dropping (Early) 41.676944000000000 -87.802778000000000 39745
Wed Oct 22 00:00:00 GMT 2014 KChapman Northern red oak Quercus rubra Flowers (None) 41.676944000000000 -87.802778000000000 39746
Wed Oct 22 00:00:00 GMT 2014 KChapman Northern red oak Quercus rubra Fruit (None) 41.676944000000000 -87.802778000000000 39747
Wed Oct 22 00:00:00 GMT 2014 KChapman Northern red oak Quercus rubra Leaves Unfolding (Late) 41.676944000000000 -87.802500000000000 39748
Wed Oct 22 00:00:00 GMT 2014 KChapman Northern red oak Quercus rubra Leaves Changing Color (Early) 41.676944000000000 -87.802500000000000 39749
Wed Oct 22 00:00:00 GMT 2014 KChapman Northern red oak Quercus rubra Leaves Dropping (Early) 41.676944000000000 -87.802500000000000 39750
Wed Oct 22 00:00:00 GMT 2014 KChapman Northern red oak Quercus rubra Leaves Unfolding (Late) 41.677500000000000 -87.805556000000000 39738
Wed Oct 22 00:00:00 GMT 2014 KChapman Northern red oak Quercus rubra Leaves Changing Color (Late) 41.677500000000000 -87.805556000000000 39739
Wed Oct 22 00:00:00 GMT 2014 KChapman Northern red oak Quercus rubra Flowers (None) 41.676944000000000 -87.802500000000000 39751
Wed Oct 22 00:00:00 GMT 2014 KChapman Northern red oak Quercus rubra Fruit (None) 41.676944000000000 -87.802500000000000 39752
Wed Oct 22 00:00:00 GMT 2014 KChapman Northern red oak Quercus rubra Leaves Dropping (Early) 41.677500000000000 -87.805556000000000 39740
Wed Oct 22 00:00:00 GMT 2014 KChapman Northern red oak Quercus rubra Flowers (None) 41.677500000000000 -87.805556000000000 39741
Wed Oct 22 00:00:00 GMT 2014 KChapman Northern red oak Quercus rubra Fruit (None) 41.677500000000000 -87.805556000000000 39742
Sun Nov 02 00:00:00 GMT 2014 hromanwalters802 Northern red oak Quercus rubra Leaves Unfolding (None) 42.335602000000000 -72.651021000000000 39783
Sun Nov 02 00:00:00 GMT 2014 hromanwalters802 Northern red oak Quercus rubra Leaves Changing Color (None) 42.335602000000000 -72.651021000000000 39784
Sun Nov 02 00:00:00 GMT 2014 hromanwalters802 Northern red oak Quercus rubra Leaves Dropping (Middle) 42.335602000000000 -72.651021000000000 39785
Sun Nov 02 00:00:00 GMT 2014 hromanwalters802 Northern red oak Quercus rubra Flowers (None) 42.335602000000000 -72.651021000000000 39786
Sun Nov 02 00:00:00 GMT 2014 hromanwalters802 Northern red oak Quercus rubra Fruit (None) 42.335602000000000 -72.651021000000000 39787
Tue Nov 04 00:00:00 GMT 2014 SRHSscience Northern red oak Quercus rubra Leaves Unfolding (None) 42.910000000000000 -71.070000000000000 39854
Tue Nov 04 00:00:00 GMT 2014 SRHSscience Northern red oak Quercus rubra Leaves Changing Color (Middle) 42.910000000000000 -71.070000000000000 39855
Tue Nov 04 00:00:00 GMT 2014 SRHSscience Northern red oak Quercus rubra Leaves Dropping (Middle) 42.910000000000000 -71.070000000000000 39856
Tue Nov 04 00:00:00 GMT 2014 SRHSscience Northern red oak Quercus rubra Flowers (None) 42.910000000000000 -71.070000000000000 39857
Tue Nov 04 00:00:00 GMT 2014 SRHSscience Northern red oak Quercus rubra Fruit (None) 42.910000000000000 -71.070000000000000 39858
Wed May 07 00:00:00 GMT 2014 SRHSscience Northern red oak Quercus rubra First Leaf 42.912300000000000 -71.069700000000000 40120
Mon May 12 00:00:00 GMT 2014 SRHSscience Northern red oak Quercus rubra All Leaves Unfolded 42.912300000000000 -71.069700000000000 40121
Mon May 12 00:00:00 GMT 2014 SRHSscience Northern red oak Quercus rubra Bud Burst 42.911300000000000 -71.074500000000000 40130
Tue May 27 00:00:00 GMT 2014 SRHSscience Northern red oak Quercus rubra All Leaves Unfolded 42.911300000000000 -71.074500000000000 40131
Sun Nov 09 00:00:00 GMT 2014 hromanwalters802 Northern red oak Quercus rubra Leaves Unfolding (None) 42.335570000000000 -72.651021000000000 40150
Sun Nov 09 00:00:00 GMT 2014 hromanwalters802 Northern red oak Quercus rubra Leaves Changing Color (None) 42.335570000000000 -72.651021000000000 40151
Sun Nov 09 00:00:00 GMT 2014 hromanwalters802 Northern red oak Quercus rubra Leaves Dropping (Late) 42.335570000000000 -72.651021000000000 40152
Sun Nov 09 00:00:00 GMT 2014 hromanwalters802 Northern red oak Quercus rubra Flowers (None) 42.335570000000000 -72.651021000000000 40153
Sun Nov 09 00:00:00 GMT 2014 hromanwalters802 Northern red oak Quercus rubra Fruit (None) 42.335570000000000 -72.651021000000000 40154
Sun Nov 09 00:00:00 GMT 2014 hromanwalters802 Northern red oak Quercus rubra Leaves Unfolding (None) 42.335570000000000 -72.651021000000000 40145
Sun Nov 09 00:00:00 GMT 2014 hromanwalters802 Northern red oak Quercus rubra Leaves Changing Color (None) 42.335570000000000 -72.651021000000000 40146
Sun Nov 09 00:00:00 GMT 2014 hromanwalters802 Northern red oak Quercus rubra Leaves Dropping (Late) 42.335570000000000 -72.651021000000000 40147
Sun Nov 09 00:00:00 GMT 2014 hromanwalters802 Northern red oak Quercus rubra Flowers (None) 42.335570000000000 -72.651021000000000 40148
Sun Nov 09 00:00:00 GMT 2014 hromanwalters802 Northern red oak Quercus rubra Fruit (None) 42.335570000000000 -72.651021000000000 40149
Thu Nov 13 00:00:00 GMT 2014 mbirdmiller Northern red oak Quercus rubra Bud Burst 43.175940000000000 -71.822300000000000 40237
Thu Nov 13 00:00:00 GMT 2014 mbirdmiller Northern red oak Quercus rubra 50% Leaf Fall 43.175940000000000 -71.822300000000000 40238
Wed Oct 22 00:00:00 GMT 2014 jpberman Northern red oak Quercus rubra 50% Color 39.163889000000000 -86.520510000000000 40588
Thu Oct 09 00:00:00 GMT 2014 kelefthe Northern red oak Quercus rubra 50% Color 39.169140000000000 -86.514910000000000 40653
Fri Oct 03 00:00:00 GMT 2014 mmhilloc Northern red oak Quercus rubra 50% Color 39.165001000000000 -86.521010000000000 40709
Fri Oct 31 00:00:00 GMT 2014 mmhilloc Northern red oak Quercus rubra 50% Leaf Fall 39.165001000000000 -86.521010000000000 40710
Mon Sep 01 00:00:00 GMT 2014 nhack7 Northern red oak Quercus rubra Leaves Unfolding (None) 39.165330000000000 -86.526390000000000 40951
Mon Sep 01 00:00:00 GMT 2014 nhack7 Northern red oak Quercus rubra Leaves Changing Color (None) 39.165330000000000 -86.526390000000000 40952
Mon Sep 01 00:00:00 GMT 2014 nhack7 Northern red oak Quercus rubra Leaves Dropping (None) 39.165330000000000 -86.526390000000000 40953
Mon Sep 01 00:00:00 GMT 2014 nhack7 Northern red oak Quercus rubra Flowers (None) 39.165330000000000 -86.526390000000000 40954
Mon Sep 01 00:00:00 GMT 2014 nhack7 Northern red oak Quercus rubra Fruit (None) 39.165330000000000 -86.526390000000000 40955
Tue Oct 21 00:00:00 GMT 2014 madstahl Northern red oak Quercus rubra 50% Color 39.165422000000000 -86.521389000000000 40901
Thu Oct 30 00:00:00 GMT 2014 madstahl Northern red oak Quercus rubra 50% Leaf Fall 39.165422000000000 -86.521389000000000 40902
Mon Nov 24 00:00:00 GMT 2014 KChapman Northern red oak Quercus rubra Leaves Unfolding (Late) 41.676944000000000 -87.802500000000000 42040
Mon Nov 24 00:00:00 GMT 2014 KChapman Northern red oak Quercus rubra Leaves Changing Color (Late) 41.676944000000000 -87.802500000000000 42041
Mon Nov 24 00:00:00 GMT 2014 KChapman Northern red oak Quercus rubra Leaves Dropping (Late) 41.676944000000000 -87.802500000000000 42042
Wed Nov 12 00:00:00 GMT 2014 KChapman Northern red oak Quercus rubra Leaves Unfolding (Late) 41.676944000000000 -87.802500000000000 42025
Wed Nov 12 00:00:00 GMT 2014 KChapman Northern red oak Quercus rubra Leaves Changing Color (Late) 41.676944000000000 -87.802500000000000 42026
Mon Nov 24 00:00:00 GMT 2014 KChapman Northern red oak Quercus rubra Flowers (None) 41.676944000000000 -87.802500000000000 42043
Mon Nov 24 00:00:00 GMT 2014 KChapman Northern red oak Quercus rubra Fruit (None) 41.676944000000000 -87.802500000000000 42044
Wed Nov 12 00:00:00 GMT 2014 KChapman Northern red oak Quercus rubra Leaves Dropping (Early) 41.676944000000000 -87.802500000000000 42027
Wed Nov 12 00:00:00 GMT 2014 KChapman Northern red oak Quercus rubra Flowers (None) 41.676944000000000 -87.802500000000000 42028
Wed Nov 12 00:00:00 GMT 2014 KChapman Northern red oak Quercus rubra Fruit (None) 41.676944000000000 -87.802500000000000 42029
Wed Nov 19 00:00:00 GMT 2014 KChapman Northern red oak Quercus rubra Leaves Unfolding (Late) 41.676944000000000 -87.802500000000000 42030
Wed Nov 19 00:00:00 GMT 2014 KChapman Northern red oak Quercus rubra Leaves Changing Color (Late) 41.676944000000000 -87.802500000000000 42031
Wed Nov 19 00:00:00 GMT 2014 KChapman Northern red oak Quercus rubra Leaves Dropping (Middle) 41.676944000000000 -87.802500000000000 42032
Wed Nov 19 00:00:00 GMT 2014 KChapman Northern red oak Quercus rubra Flowers (None) 41.676944000000000 -87.802500000000000 42033
Wed Nov 19 00:00:00 GMT 2014 KChapman Northern red oak Quercus rubra Fruit (None) 41.676944000000000 -87.802500000000000 42034
Wed Nov 05 00:00:00 GMT 2014 KChapman Northern red oak Quercus rubra Leaves Unfolding (Late) 41.677500000000000 -87.805556000000000 42005
Wed Nov 05 00:00:00 GMT 2014 KChapman Northern red oak Quercus rubra Leaves Changing Color (None) 41.677500000000000 -87.805556000000000 42006
Wed Nov 05 00:00:00 GMT 2014 KChapman Northern red oak Quercus rubra Leaves Dropping (None) 41.677500000000000 -87.805556000000000 42007
Wed Nov 05 00:00:00 GMT 2014 KChapman Northern red oak Quercus rubra Flowers (None) 41.677500000000000 -87.805556000000000 42008
Wed Nov 05 00:00:00 GMT 2014 KChapman Northern red oak Quercus rubra Fruit (None) 41.677500000000000 -87.805556000000000 42009
Wed Nov 05 00:00:00 GMT 2014 KChapman Northern red oak Quercus rubra Leaves Unfolding (Late) 41.676944000000000 -87.802778000000000 42010
Wed Nov 05 00:00:00 GMT 2014 KChapman Northern red oak Quercus rubra Leaves Changing Color (None) 41.676944000000000 -87.802778000000000 42011
Wed Nov 05 00:00:00 GMT 2014 KChapman Northern red oak Quercus rubra Leaves Dropping (None) 41.676944000000000 -87.802778000000000 42012
Wed Nov 05 00:00:00 GMT 2014 KChapman Northern red oak Quercus rubra Flowers (None) 41.676944000000000 -87.802778000000000 42013
Wed Nov 05 00:00:00 GMT 2014 KChapman Northern red oak Quercus rubra Fruit (None) 41.676944000000000 -87.802778000000000 42014
Wed Nov 05 00:00:00 GMT 2014 KChapman Northern red oak Quercus rubra Leaves Unfolding (Late) 41.676944000000000 -87.802778000000000 42015
Wed Nov 05 00:00:00 GMT 2014 KChapman Northern red oak Quercus rubra Leaves Changing Color (Late) 41.676944000000000 -87.802778000000000 42016
Wed Nov 05 00:00:00 GMT 2014 KChapman Northern red oak Quercus rubra Leaves Dropping (Early) 41.676944000000000 -87.802778000000000 42017
Wed Nov 05 00:00:00 GMT 2014 KChapman Northern red oak Quercus rubra Flowers (None) 41.676944000000000 -87.802778000000000 42018
Wed Nov 05 00:00:00 GMT 2014 KChapman Northern red oak Quercus rubra Fruit (None) 41.676944000000000 -87.802778000000000 42019
Sat Oct 04 00:00:00 GMT 2014 nhack7 Northern red oak Quercus rubra Leaves Unfolding (None) 39.168034000000000 -86.518815000000000 42624
Sat Oct 04 00:00:00 GMT 2014 nhack7 Northern red oak Quercus rubra Leaves Changing Color (Middle) 39.168034000000000 -86.518815000000000 42625
Sat Oct 04 00:00:00 GMT 2014 nhack7 Northern red oak Quercus rubra Leaves Dropping (None) 39.168034000000000 -86.518815000000000 42626
Sat Oct 04 00:00:00 GMT 2014 nhack7 Northern red oak Quercus rubra Flowers (None) 39.168034000000000 -86.518815000000000 42627
Sat Oct 04 00:00:00 GMT 2014 nhack7 Northern red oak Quercus rubra Fruit (None) 39.168034000000000 -86.518815000000000 42628
Mon Oct 27 00:00:00 GMT 2014 nhack7 Northern red oak Quercus rubra Leaves Unfolding (None) 39.167868000000000 -86.518729000000000 42629
Mon Oct 27 00:00:00 GMT 2014 nhack7 Northern red oak Quercus rubra Leaves Changing Color (Late) 39.167868000000000 -86.518729000000000 42630
Mon Oct 27 00:00:00 GMT 2014 nhack7 Northern red oak Quercus rubra Leaves Dropping (Middle) 39.167868000000000 -86.518729000000000 42631
Mon Oct 27 00:00:00 GMT 2014 nhack7 Northern red oak Quercus rubra Flowers (None) 39.167868000000000 -86.518729000000000 42632
Mon Oct 27 00:00:00 GMT 2014 nhack7 Northern red oak Quercus rubra Fruit (None) 39.167868000000000 -86.518729000000000 42633
Thu Dec 04 00:00:00 GMT 2014 nhack7 Northern red oak Quercus rubra Leaves Unfolding (None) 39.167967000000000 -86.518900000000000 42634
Thu Dec 04 00:00:00 GMT 2014 nhack7 Northern red oak Quercus rubra Leaves Changing Color (Late) 39.167967000000000 -86.518900000000000 42635
Thu Dec 04 00:00:00 GMT 2014 nhack7 Northern red oak Quercus rubra Leaves Dropping (Late) 39.167967000000000 -86.518900000000000 42636
Thu Dec 04 00:00:00 GMT 2014 nhack7 Northern red oak Quercus rubra Flowers (None) 39.167967000000000 -86.518900000000000 42637
Thu Dec 04 00:00:00 GMT 2014 nhack7 Northern red oak Quercus rubra Fruit (None) 39.167967000000000 -86.518900000000000 42638
Sun May 03 00:00:00 GMT 2015 mpgooley Northern red oak Quercus rubra Bud Burst 42.358800000000000 -71.250500000000000 62017
Wed May 13 00:00:00 GMT 2015 mpgooley Northern red oak Quercus rubra All Leaves Unfolded 42.358800000000000 -71.250500000000000 62018
Sat Sep 12 00:00:00 GMT 2015 mpgooley Northern red oak Quercus rubra First Ripe Fruit 42.358800000000000 -71.250500000000000 62019
Sat Sep 19 00:00:00 GMT 2015 mpgooley Northern red oak Quercus rubra Full Fruiting 42.358800000000000 -71.250500000000000 62020
Sat Nov 07 00:00:00 GMT 2015 mpgooley Northern red oak Quercus rubra 50% Color 42.358800000000000 -71.250500000000000 62021
Sat Nov 14 00:00:00 GMT 2015 mpgooley Northern red oak Quercus rubra 50% Leaf Fall 42.358800000000000 -71.250500000000000 62022
Mon Mar 21 00:00:00 GMT 2016 egfeicke Northern red oak Quercus rubra Bud Burst 39.165330000000000 -86.526390000000000 63788
Fri Jan 22 00:00:00 GMT 2016 hopstrel Northern red oak Quercus rubra 50% Leaf Fall 39.170005000000000 -86.512935000000000 63845
Sun Apr 10 00:00:00 GMT 2016 Makail12 Northern red oak Quercus rubra Leaves Unfolding (None) 39.164890000000000 -86.521080000000000 63965
Sun Apr 10 00:00:00 GMT 2016 Makail12 Northern red oak Quercus rubra Leaves Changing Color (None) 39.164890000000000 -86.521080000000000 63966
Sun Apr 10 00:00:00 GMT 2016 Makail12 Northern red oak Quercus rubra Leaves Dropping (None) 39.164890000000000 -86.521080000000000 63967
Sun Apr 10 00:00:00 GMT 2016 Makail12 Northern red oak Quercus rubra Flowers (None) 39.164890000000000 -86.521080000000000 63968
Sun Apr 10 00:00:00 GMT 2016 Makail12 Northern red oak Quercus rubra Fruit (None) 39.164890000000000 -86.521080000000000 63969
Sun Apr 10 00:00:00 GMT 2016 krreader Northern red oak Quercus rubra Leaves Unfolding (None) 39.164800000000000 -86.519670000000000 63992
Sun Apr 10 00:00:00 GMT 2016 krreader Northern red oak Quercus rubra Leaves Changing Color (None) 39.164800000000000 -86.519670000000000 63993
Sun Apr 10 00:00:00 GMT 2016 krreader Northern red oak Quercus rubra Leaves Dropping (None) 39.164800000000000 -86.519670000000000 63994
Sun Apr 10 00:00:00 GMT 2016 krreader Northern red oak Quercus rubra Flowers (None) 39.164800000000000 -86.519670000000000 63995
Sun Apr 10 00:00:00 GMT 2016 krreader Northern red oak Quercus rubra Fruit (None) 39.164800000000000 -86.519670000000000 63996
Wed Mar 30 00:00:00 GMT 2016 matthewcouch411 Northern red oak Quercus rubra Bud Burst 40.000000000000000 -100.000000000000000 64074
Thu Apr 07 00:00:00 GMT 2016 sydneynelson Northern red oak Quercus rubra Bud Burst 39.167575000000000 -86.512729000000000 64315
Sun Mar 20 00:00:00 GMT 2016 jatambur Northern red oak Quercus rubra Bud Burst 39.165330000000000 -86.526390000000000 64342
Thu Apr 07 00:00:00 GMT 2016 jatambur Northern red oak Quercus rubra First Leaf 39.165330000000000 -86.526390000000000 64343
Thu Mar 24 00:00:00 GMT 2016 jatambur Northern red oak Quercus rubra First Flower 39.165330000000000 -86.526390000000000 64344
Sun Jan 17 00:00:00 GMT 2016 KDFoster2016 Northern red oak Quercus rubra Bud Burst 39.205310000000000 -86.479440000000000 64385
Tue Mar 08 00:00:00 GMT 2016 KDFoster2016 Northern red oak Quercus rubra First Leaf 39.205310000000000 -86.479440000000000 64386
Thu Feb 25 00:00:00 GMT 2016 parkshi Northern red oak Quercus rubra Bud Burst 39.157752000000000 -86.502571000000000 64398
Tue Apr 05 00:00:00 GMT 2016 morrowm Northern red oak Quercus rubra Bud Burst 39.170790000000000 -86.530040000000000 64402
Thu Feb 04 00:00:00 GMT 2016 kaellycollins Northern red oak Quercus rubra Bud Burst 39.162200000000000 -36.529200000000000 64405
Thu Feb 11 00:00:00 GMT 2016 kaellycollins Northern red oak Quercus rubra First Flower 39.162200000000000 -36.529200000000000 64406
Thu Mar 24 00:00:00 GMT 2016 kaellycollins Northern red oak Quercus rubra First Ripe Fruit 39.162200000000000 -36.529200000000000 64407
Thu Feb 25 00:00:00 GMT 2016 kaellycollins Northern red oak Quercus rubra Bud Burst 39.162200000000000 -36.529200000000000 64413
Mon Apr 25 00:00:00 GMT 2016 katfadigan Northern red oak Quercus rubra Leaves Unfolding (Early) 40.256280000000000 -75.123570000000000 65374
Mon Apr 25 00:00:00 GMT 2016 katfadigan Northern red oak Quercus rubra Leaves Changing Color (None) 40.256280000000000 -75.123570000000000 65375
Mon Apr 25 00:00:00 GMT 2016 katfadigan Northern red oak Quercus rubra Leaves Dropping (None) 40.256280000000000 -75.123570000000000 65376
Mon Apr 25 00:00:00 GMT 2016 katfadigan Northern red oak Quercus rubra Flowers (None) 40.256280000000000 -75.123570000000000 65377
Mon Apr 25 00:00:00 GMT 2016 katfadigan Northern red oak Quercus rubra Fruit (None) 40.256280000000000 -75.123570000000000 65378
Tue Mar 22 00:00:00 GMT 2016 sminniga Northern red oak Quercus rubra Leaves Unfolding (None) 39.165500000000000 -86.512540000000000 66079
Tue Mar 22 00:00:00 GMT 2016 sminniga Northern red oak Quercus rubra Leaves Changing Color (None) 39.165500000000000 -86.512540000000000 66080
Tue Mar 22 00:00:00 GMT 2016 sminniga Northern red oak Quercus rubra Leaves Dropping (None) 39.165500000000000 -86.512540000000000 66081
Tue Mar 22 00:00:00 GMT 2016 sminniga Northern red oak Quercus rubra Flowers (None) 39.165500000000000 -86.512540000000000 66082
Tue Mar 22 00:00:00 GMT 2016 sminniga Northern red oak Quercus rubra Fruit (None) 39.165500000000000 -86.512540000000000 66083
Fri May 13 00:00:00 GMT 2016 whiterj Northern red oak Quercus rubra Leaves Unfolding (Late) 42.445620000000000 -70.817871000000000 67113
Fri May 13 00:00:00 GMT 2016 whiterj Northern red oak Quercus rubra Leaves Changing Color (None) 42.445620000000000 -70.817871000000000 67114
Fri May 13 00:00:00 GMT 2016 whiterj Northern red oak Quercus rubra Leaves Dropping (Early) 42.445620000000000 -70.817871000000000 67115
Fri May 13 00:00:00 GMT 2016 whiterj Northern red oak Quercus rubra Flowers (Early) 42.445620000000000 -70.817871000000000 67116
Fri May 13 00:00:00 GMT 2016 whiterj Northern red oak Quercus rubra Fruit (None) 42.445620000000000 -70.817871000000000 67117
Tue Sep 15 00:00:00 GMT 2015 MsFBLA_BLA-Laviscount_Park_reporter50 Northern red oak Quercus rubra Bud Burst 42.316575000000000 -71.086242000000000 67263
Fri Oct 23 00:00:00 GMT 2015 MsFBLA_BLA-Laviscount_Park_reporter50 Northern red oak Quercus rubra 50% Color 42.316575000000000 -71.086242000000000 67264
Tue Oct 13 00:00:00 GMT 2015 MsFBLA_BLA-Laviscount_Park_reporter50 Northern red oak Quercus rubra 50% Leaf Fall 42.316575000000000 -71.086242000000000 67265
Tue Sep 15 00:00:00 GMT 2015 MsFBLA_BLA-Laviscount_Park_reporter50 Northern red oak Quercus rubra Bud Burst 42.316575000000000 -71.086242000000000 67266
Fri Oct 23 00:00:00 GMT 2015 MsFBLA_BLA-Laviscount_Park_reporter50 Northern red oak Quercus rubra 50% Color 42.316575000000000 -71.086242000000000 67267
Tue Oct 13 00:00:00 GMT 2015 MsFBLA_BLA-Laviscount_Park_reporter50 Northern red oak Quercus rubra 50% Leaf Fall 42.316575000000000 -71.086242000000000 67268
Tue Mar 15 00:00:00 GMT 2016 ashlynbailey_ Northern red oak Quercus rubra Leaves Unfolding (None) 35.815850000000000 -86.409500000000000 67315
Tue Mar 15 00:00:00 GMT 2016 ashlynbailey_ Northern red oak Quercus rubra Leaves Changing Color (None) 35.815850000000000 -86.409500000000000 67316
Tue Mar 15 00:00:00 GMT 2016 ashlynbailey_ Northern red oak Quercus rubra Leaves Dropping (None) 35.815850000000000 -86.409500000000000 67317
Tue Mar 15 00:00:00 GMT 2016 ashlynbailey_ Northern red oak Quercus rubra Flowers (Middle) 35.815850000000000 -86.409500000000000 67318
Tue Mar 15 00:00:00 GMT 2016 ashlynbailey_ Northern red oak Quercus rubra Fruit (None) 35.815850000000000 -86.409500000000000 67319
Mon Mar 21 00:00:00 GMT 2016 ashlynbailey_ Northern red oak Quercus rubra Leaves Unfolding (Middle) 35.815850000000000 -86.409500000000000 67320
Mon Mar 21 00:00:00 GMT 2016 ashlynbailey_ Northern red oak Quercus rubra Leaves Changing Color (None) 35.815850000000000 -86.409500000000000 67321
Mon Mar 21 00:00:00 GMT 2016 ashlynbailey_ Northern red oak Quercus rubra Leaves Dropping (Early) 35.815850000000000 -86.409500000000000 67322
Mon Mar 21 00:00:00 GMT 2016 ashlynbailey_ Northern red oak Quercus rubra Flowers (Middle) 35.815850000000000 -86.409500000000000 67323
Mon Mar 21 00:00:00 GMT 2016 ashlynbailey_ Northern red oak Quercus rubra Fruit (None) 35.815850000000000 -86.409500000000000 67324
Mon Apr 04 00:00:00 GMT 2016 ashlynbailey_ Northern red oak Quercus rubra Leaves Unfolding (Middle) 35.815850000000000 -86.409500000000000 67325
Mon Apr 04 00:00:00 GMT 2016 ashlynbailey_ Northern red oak Quercus rubra Leaves Changing Color (None) 35.815850000000000 -86.409500000000000 67326
Mon Apr 04 00:00:00 GMT 2016 ashlynbailey_ Northern red oak Quercus rubra Leaves Dropping (Early) 35.815850000000000 -86.409500000000000 67327
Mon Apr 04 00:00:00 GMT 2016 ashlynbailey_ Northern red oak Quercus rubra Flowers (None) 35.815850000000000 -86.409500000000000 67328
Mon Apr 04 00:00:00 GMT 2016 ashlynbailey_ Northern red oak Quercus rubra Fruit (None) 35.815850000000000 -86.409500000000000 67329
Mon Apr 18 00:00:00 GMT 2016 ashlynbailey_ Northern red oak Quercus rubra Leaves Unfolding (Late) 35.815850000000000 -86.409500000000000 67330
Mon Apr 18 00:00:00 GMT 2016 ashlynbailey_ Northern red oak Quercus rubra Leaves Changing Color (None) 35.815850000000000 -86.409500000000000 67331
Mon Apr 18 00:00:00 GMT 2016 ashlynbailey_ Northern red oak Quercus rubra Leaves Dropping (Early) 35.815850000000000 -86.409500000000000 67332
Mon Apr 18 00:00:00 GMT 2016 ashlynbailey_ Northern red oak Quercus rubra Flowers (None) 35.815850000000000 -86.409500000000000 67333
Mon Apr 18 00:00:00 GMT 2016 ashlynbailey_ Northern red oak Quercus rubra Fruit (None) 35.815850000000000 -86.409500000000000 67334
Wed Jul 13 00:00:00 GMT 2016 MBGYouthandFamily Northern red oak Quercus rubra Leaves Unfolding (Late) 38.613425100000000 -90.258645600000000 68866
Wed Jul 13 00:00:00 GMT 2016 MBGYouthandFamily Northern red oak Quercus rubra Leaves Changing Color (None) 38.613425100000000 -90.258645600000000 68867
Wed Jul 13 00:00:00 GMT 2016 MBGYouthandFamily Northern red oak Quercus rubra Leaves Dropping (None) 38.613425100000000 -90.258645600000000 68868
Wed Jul 13 00:00:00 GMT 2016 MBGYouthandFamily Northern red oak Quercus rubra Flowers (None) 38.613425100000000 -90.258645600000000 68869
Wed Jul 13 00:00:00 GMT 2016 MBGYouthandFamily Northern red oak Quercus rubra Fruit (None) 38.613425100000000 -90.258645600000000 68870
Tue Aug 09 00:00:00 GMT 2016 MBGYouthandFamily Northern red oak Quercus rubra Leaves Unfolding (Late) 38.613425100000000 -90.258645600000000 69367
Tue Aug 09 00:00:00 GMT 2016 MBGYouthandFamily Northern red oak Quercus rubra Leaves Changing Color (None) 38.613425100000000 -90.258645600000000 69368
Tue Aug 09 00:00:00 GMT 2016 MBGYouthandFamily Northern red oak Quercus rubra Leaves Dropping (None) 38.613425100000000 -90.258645600000000 69369
Tue Aug 09 00:00:00 GMT 2016 MBGYouthandFamily Northern red oak Quercus rubra Flowers (None) 38.613425100000000 -90.258645600000000 69370
Tue Aug 09 00:00:00 GMT 2016 MBGYouthandFamily Northern red oak Quercus rubra Fruit (None) 38.613425100000000 -90.258645600000000 69371
Wed Aug 17 00:00:00 GMT 2016 MBGYouthandFamily Northern red oak Quercus rubra Leaves Unfolding (None) 38.613425100000000 -90.258645600000000 69498
Wed Aug 17 00:00:00 GMT 2016 MBGYouthandFamily Northern red oak Quercus rubra Leaves Changing Color (None) 38.613425100000000 -90.258645600000000 69499
Wed Aug 17 00:00:00 GMT 2016 MBGYouthandFamily Northern red oak Quercus rubra Leaves Dropping (None) 38.613425100000000 -90.258645600000000 69500
Wed Aug 17 00:00:00 GMT 2016 MBGYouthandFamily Northern red oak Quercus rubra Flowers (None) 38.613425100000000 -90.258645600000000 69501
Wed Aug 17 00:00:00 GMT 2016 MBGYouthandFamily Northern red oak Quercus rubra Fruit (Early) 38.613425100000000 -90.258645600000000 69502
Mon Aug 29 00:00:00 GMT 2016 MBGYouthandFamily Northern red oak Quercus rubra Leaves Unfolding (Late) 38.613425100000000 -90.258645600000000 69580
Mon Aug 29 00:00:00 GMT 2016 MBGYouthandFamily Northern red oak Quercus rubra Leaves Changing Color (None) 38.613425100000000 -90.258645600000000 69581
Mon Aug 29 00:00:00 GMT 2016 MBGYouthandFamily Northern red oak Quercus rubra Leaves Dropping (Early) 38.613425100000000 -90.258645600000000 69582
Mon Aug 29 00:00:00 GMT 2016 MBGYouthandFamily Northern red oak Quercus rubra Flowers (None) 38.613425100000000 -90.258645600000000 69583
Mon Aug 29 00:00:00 GMT 2016 MBGYouthandFamily Northern red oak Quercus rubra Fruit (Early) 38.613425100000000 -90.258645600000000 69584
Sat Sep 10 00:00:00 GMT 2016 anniyahambroise Northern red oak Quercus rubra Bud Burst 38.902820000000000 -77.515260000000000 69665
Sat Sep 10 00:00:00 GMT 2016 anniyahambroise Northern red oak Quercus rubra First Leaf 38.902820000000000 -77.515260000000000 69666
Sat Sep 10 00:00:00 GMT 2016 anniyahambroise Northern red oak Quercus rubra 50% Leaf Fall 38.902820000000000 -77.515260000000000 69667
Sun Sep 11 00:00:00 GMT 2016 BlairAtticus Northern red oak Quercus rubra Leaves Unfolding (Late) 38.899220000000000 -77.502640000000000 69686
Sun Sep 11 00:00:00 GMT 2016 BlairAtticus Northern red oak Quercus rubra Leaves Changing Color (Middle) 38.899220000000000 -77.502640000000000 69687
Sun Sep 11 00:00:00 GMT 2016 BlairAtticus Northern red oak Quercus rubra Leaves Dropping (Early) 38.899220000000000 -77.502640000000000 69688
Sun Sep 11 00:00:00 GMT 2016 BlairAtticus Northern red oak Quercus rubra Flowers (Late) 38.899220000000000 -77.502640000000000 69689
Sun Sep 11 00:00:00 GMT 2016 BlairAtticus Northern red oak Quercus rubra Fruit (Middle) 38.899220000000000 -77.502640000000000 69690
Mon Sep 12 00:00:00 GMT 2016 VGondy Northern red oak Quercus rubra Leaves Unfolding (Late) 38.895590000000000 -77.510770000000000 69783
Mon Sep 12 00:00:00 GMT 2016 VGondy Northern red oak Quercus rubra Leaves Changing Color (Early) 38.895590000000000 -77.510770000000000 69784
Mon Sep 12 00:00:00 GMT 2016 VGondy Northern red oak Quercus rubra Leaves Dropping (Early) 38.895590000000000 -77.510770000000000 69785
Mon Sep 12 00:00:00 GMT 2016 VGondy Northern red oak Quercus rubra Flowers (None) 38.895590000000000 -77.510770000000000 69786
Mon Sep 12 00:00:00 GMT 2016 VGondy Northern red oak Quercus rubra Fruit (None) 38.895590000000000 -77.510770000000000 69787
Sun Sep 18 00:00:00 GMT 2016 anniyahambroise Northern red oak Quercus rubra 50% Color 38.902820000000000 -77.515260000000000 69863
Tue Sep 27 00:00:00 GMT 2016 ppattersonhcsd Northern red oak Quercus rubra Bud Burst 42.644093000000000 -78.540825000000000 70145
Mon Sep 26 00:00:00 GMT 2016 MBGYouthandFamily Northern red oak Quercus rubra Leaves Unfolding (Late) 38.613425100000000 -90.258645600000000 70236
Mon Sep 26 00:00:00 GMT 2016 MBGYouthandFamily Northern red oak Quercus rubra Leaves Changing Color (Early) 38.613425100000000 -90.258645600000000 70237
Mon Sep 26 00:00:00 GMT 2016 MBGYouthandFamily Northern red oak Quercus rubra Leaves Dropping (Early) 38.613425100000000 -90.258645600000000 70238
Mon Sep 26 00:00:00 GMT 2016 MBGYouthandFamily Northern red oak Quercus rubra Flowers (None) 38.613425100000000 -90.258645600000000 70239
Mon Sep 26 00:00:00 GMT 2016 MBGYouthandFamily Northern red oak Quercus rubra Fruit (Early) 38.613425100000000 -90.258645600000000 70240
Thu Sep 29 00:00:00 GMT 2016 MarisaMK Northern red oak Quercus rubra Leaves Unfolding (Late) 42.848980000000000 -70.929500000000000 70327
Thu Sep 29 00:00:00 GMT 2016 MarisaMK Northern red oak Quercus rubra Leaves Changing Color (None) 42.848980000000000 -70.929500000000000 70328
Thu Sep 29 00:00:00 GMT 2016 MarisaMK Northern red oak Quercus rubra Leaves Dropping (Early) 42.848980000000000 -70.929500000000000 70329
Thu Sep 29 00:00:00 GMT 2016 MarisaMK Northern red oak Quercus rubra Flowers (None) 42.848980000000000 -70.929500000000000 70330
Thu Sep 29 00:00:00 GMT 2016 MarisaMK Northern red oak Quercus rubra Fruit (None) 42.848980000000000 -70.929500000000000 70331
Sun Oct 16 00:00:00 GMT 2016 westcreek Northern red oak Quercus rubra Leaves Unfolding (Late) 41.388336000000000 -81.694851000000000 70769
Sun Oct 16 00:00:00 GMT 2016 westcreek Northern red oak Quercus rubra Leaves Changing Color (Early) 41.388336000000000 -81.694851000000000 70770
Sun Oct 16 00:00:00 GMT 2016 westcreek Northern red oak Quercus rubra Leaves Dropping (Early) 41.388336000000000 -81.694851000000000 70771
Sun Oct 16 00:00:00 GMT 2016 westcreek Northern red oak Quercus rubra Flowers (None) 41.388336000000000 -81.694851000000000 70772
Sun Oct 16 00:00:00 GMT 2016 westcreek Northern red oak Quercus rubra Fruit (Late) 41.388336000000000 -81.694851000000000 70773
Wed Oct 19 00:00:00 GMT 2016 ppattersonhcsd Northern red oak Quercus rubra 50% Color 42.644093000000000 -78.540825000000000 70967
Mon Oct 17 00:00:00 GMT 2016 MBGYouthandFamily Northern red oak Quercus rubra Leaves Unfolding (None) 38.613425100000000 -90.258645600000000 71024
Mon Oct 17 00:00:00 GMT 2016 MBGYouthandFamily Northern red oak Quercus rubra Leaves Changing Color (Middle) 38.613425100000000 -90.258645600000000 71025
Mon Oct 17 00:00:00 GMT 2016 MBGYouthandFamily Northern red oak Quercus rubra Leaves Dropping (Early) 38.613425100000000 -90.258645600000000 71026
Mon Oct 17 00:00:00 GMT 2016 MBGYouthandFamily Northern red oak Quercus rubra Flowers (None) 38.613425100000000 -90.258645600000000 71027
Mon Oct 17 00:00:00 GMT 2016 MBGYouthandFamily Northern red oak Quercus rubra Fruit (None) 38.613425100000000 -90.258645600000000 71028
Thu Oct 20 00:00:00 GMT 2016 MarisaMK Northern red oak Quercus rubra Leaves Unfolding (Late) 42.848980000000000 -70.929500000000000 71091
Thu Oct 20 00:00:00 GMT 2016 MarisaMK Northern red oak Quercus rubra Leaves Changing Color (Middle) 42.848980000000000 -70.929500000000000 71092
Thu Oct 20 00:00:00 GMT 2016 MarisaMK Northern red oak Quercus rubra Leaves Dropping (Middle) 42.848980000000000 -70.929500000000000 71093
Thu Oct 20 00:00:00 GMT 2016 MarisaMK Northern red oak Quercus rubra Flowers (None) 42.848980000000000 -70.929500000000000 71094
Thu Oct 20 00:00:00 GMT 2016 MarisaMK Northern red oak Quercus rubra Fruit (None) 42.848980000000000 -70.929500000000000 71095
Sat Nov 05 00:00:00 GMT 2016 alijacollins Northern red oak Quercus rubra Leaves Unfolding (Late) 40.723950000000000 -73.792580000000000 72661
Sat Nov 05 00:00:00 GMT 2016 alijacollins Northern red oak Quercus rubra Leaves Changing Color (Middle) 40.723950000000000 -73.792580000000000 72662
Sat Nov 05 00:00:00 GMT 2016 alijacollins Northern red oak Quercus rubra Leaves Dropping (Middle) 40.723950000000000 -73.792580000000000 72663
Sat Nov 05 00:00:00 GMT 2016 alijacollins Northern red oak Quercus rubra Flowers (None) 40.723950000000000 -73.792580000000000 72664
Sat Nov 05 00:00:00 GMT 2016 alijacollins Northern red oak Quercus rubra Fruit (None) 40.723950000000000 -73.792580000000000 72665
Wed Oct 12 00:00:00 GMT 2016 nperfetti98 Northern red oak Quercus rubra Leaves Unfolding (Late) 40.694080000000000 -73.456570000000000 72689
Wed Oct 12 00:00:00 GMT 2016 nperfetti98 Northern red oak Quercus rubra Leaves Changing Color (Early) 40.694080000000000 -73.456570000000000 72690
Wed Oct 12 00:00:00 GMT 2016 nperfetti98 Northern red oak Quercus rubra Leaves Dropping (Early) 40.694080000000000 -73.456570000000000 72691
Wed Oct 12 00:00:00 GMT 2016 nperfetti98 Northern red oak Quercus rubra Flowers (None) 40.694080000000000 -73.456570000000000 72692
Wed Oct 12 00:00:00 GMT 2016 nperfetti98 Northern red oak Quercus rubra Fruit (None) 40.694080000000000 -73.456570000000000 72693
Mon Nov 07 00:00:00 GMT 2016 torijoy Northern red oak Quercus rubra Leaves Unfolding (Late) 40.612770000000000 -73.931000000000000 72694
Mon Nov 07 00:00:00 GMT 2016 torijoy Northern red oak Quercus rubra Leaves Changing Color (Middle) 40.612770000000000 -73.931000000000000 72695
Mon Nov 07 00:00:00 GMT 2016 torijoy Northern red oak Quercus rubra Leaves Dropping (Middle) 40.612770000000000 -73.931000000000000 72696
Mon Nov 07 00:00:00 GMT 2016 torijoy Northern red oak Quercus rubra Flowers (Late) 40.612770000000000 -73.931000000000000 72697
Mon Nov 07 00:00:00 GMT 2016 torijoy Northern red oak Quercus rubra Fruit (Late) 40.612770000000000 -73.931000000000000 72698
Sat Oct 29 00:00:00 GMT 2016 torijoy Northern red oak Quercus rubra Bud Burst 40.603970000000000 -73.930570000000000 73103
Thu May 05 00:00:00 GMT 2016 torijoy Northern red oak Quercus rubra First Leaf 40.603970000000000 -73.930570000000000 73104
Thu Jun 02 00:00:00 GMT 2016 torijoy Northern red oak Quercus rubra All Leaves Unfolded 40.603970000000000 -73.930570000000000 73105
Thu Jul 07 00:00:00 GMT 2016 torijoy Northern red oak Quercus rubra First Flower 40.603970000000000 -73.930570000000000 73106
Thu Aug 25 00:00:00 GMT 2016 torijoy Northern red oak Quercus rubra Full Flower 40.603970000000000 -73.930570000000000 73107
Wed Sep 21 00:00:00 GMT 2016 torijoy Northern red oak Quercus rubra First Ripe Fruit 40.603970000000000 -73.930570000000000 73108
Fri Oct 07 00:00:00 GMT 2016 torijoy Northern red oak Quercus rubra Full Fruiting 40.603970000000000 -73.930570000000000 73109
Thu Sep 29 00:00:00 GMT 2016 torijoy Northern red oak Quercus rubra 50% Color 40.603970000000000 -73.930570000000000 73110
Thu Oct 13 00:00:00 GMT 2016 torijoy Northern red oak Quercus rubra 50% Leaf Fall 40.603970000000000 -73.930570000000000 73111
Thu Nov 10 00:00:00 GMT 2016 torijoy Northern red oak Quercus rubra Leaves Unfolding (Late) 40.000000000000000 -100.000000000000000 73117
Thu Nov 10 00:00:00 GMT 2016 torijoy Northern red oak Quercus rubra Leaves Changing Color (Middle) 40.000000000000000 -100.000000000000000 73118
Thu Nov 10 00:00:00 GMT 2016 torijoy Northern red oak Quercus rubra Leaves Dropping (Late) 40.000000000000000 -100.000000000000000 73119
Thu Nov 10 00:00:00 GMT 2016 torijoy Northern red oak Quercus rubra Flowers (Late) 40.000000000000000 -100.000000000000000 73120
Thu Nov 10 00:00:00 GMT 2016 torijoy Northern red oak Quercus rubra Fruit (Late) 40.000000000000000 -100.000000000000000 73121
Thu Nov 10 00:00:00 GMT 2016 ppattersonhcsd Northern red oak Quercus rubra 50% Leaf Fall 42.644093000000000 -78.540825000000000 73133
Wed Oct 26 00:00:00 GMT 2016 amcgeary Northern red oak Quercus rubra Leaves Unfolding (Late) 39.156161000000000 -86.490667000000000 73276
Wed Oct 26 00:00:00 GMT 2016 amcgeary Northern red oak Quercus rubra Leaves Changing Color (Middle) 39.156161000000000 -86.490667000000000 73277
Wed Oct 26 00:00:00 GMT 2016 amcgeary Northern red oak Quercus rubra Leaves Dropping (None) 39.156161000000000 -86.490667000000000 73278
Wed Oct 26 00:00:00 GMT 2016 amcgeary Northern red oak Quercus rubra Flowers (None) 39.156161000000000 -86.490667000000000 73279
Wed Oct 26 00:00:00 GMT 2016 amcgeary Northern red oak Quercus rubra Fruit (None) 39.156161000000000 -86.490667000000000 73280
Wed Oct 26 00:00:00 GMT 2016 amcgeary Northern red oak Quercus rubra 50% Color 39.156061000000000 -86.490775000000000 73308
Mon Oct 24 00:00:00 GMT 2016 Nunop96 Northern red oak Quercus rubra Leaves Unfolding (Late) 40.721632000000000 -73.794823000000000 73546
Mon Oct 24 00:00:00 GMT 2016 Nunop96 Northern red oak Quercus rubra Leaves Changing Color (Middle) 40.721632000000000 -73.794823000000000 73547
Mon Oct 24 00:00:00 GMT 2016 Nunop96 Northern red oak Quercus rubra Leaves Dropping (Early) 40.721632000000000 -73.794823000000000 73548
Mon Oct 24 00:00:00 GMT 2016 Nunop96 Northern red oak Quercus rubra Flowers (None) 40.721632000000000 -73.794823000000000 73549
Mon Oct 24 00:00:00 GMT 2016 Nunop96 Northern red oak Quercus rubra Fruit (None) 40.721632000000000 -73.794823000000000 73550
Mon Nov 14 00:00:00 GMT 2016 Nunop96 Northern red oak Quercus rubra Leaves Unfolding (None) 40.721762000000000 -73.794823000000000 73611
Mon Nov 14 00:00:00 GMT 2016 Nunop96 Northern red oak Quercus rubra Leaves Changing Color (Late) 40.721762000000000 -73.794823000000000 73612
Mon Nov 14 00:00:00 GMT 2016 Nunop96 Northern red oak Quercus rubra Leaves Dropping (Middle) 40.721762000000000 -73.794823000000000 73613
Mon Nov 14 00:00:00 GMT 2016 Nunop96 Northern red oak Quercus rubra Flowers (None) 40.721762000000000 -73.794823000000000 73614
Mon Nov 14 00:00:00 GMT 2016 Nunop96 Northern red oak Quercus rubra Fruit (None) 40.721762000000000 -73.794823000000000 73615
Mon Nov 21 00:00:00 GMT 2016 MBGYouthandFamily Northern red oak Quercus rubra Leaves Unfolding (Late) 38.613425100000000 -90.258645600000000 73896
Mon Nov 21 00:00:00 GMT 2016 MBGYouthandFamily Northern red oak Quercus rubra Leaves Changing Color (Late) 38.613425100000000 -90.258645600000000 73897
Mon Nov 21 00:00:00 GMT 2016 MBGYouthandFamily Northern red oak Quercus rubra Leaves Dropping (Middle) 38.613425100000000 -90.258645600000000 73898
Mon Nov 21 00:00:00 GMT 2016 MBGYouthandFamily Northern red oak Quercus rubra Flowers (None) 38.613425100000000 -90.258645600000000 73899
Mon Nov 21 00:00:00 GMT 2016 MBGYouthandFamily Northern red oak Quercus rubra Fruit (Late) 38.613425100000000 -90.258645600000000 73900
Wed Oct 12 00:00:00 GMT 2016 nperfetti98 Northern red oak Quercus rubra Leaves Unfolding (Late) 40.694080000000000 -73.456570000000000 73980
Wed Oct 12 00:00:00 GMT 2016 nperfetti98 Northern red oak Quercus rubra Leaves Changing Color (Early) 40.694080000000000 -73.456570000000000 73981
Wed Oct 12 00:00:00 GMT 2016 nperfetti98 Northern red oak Quercus rubra Leaves Dropping (Early) 40.694080000000000 -73.456570000000000 73982
Wed Oct 12 00:00:00 GMT 2016 nperfetti98 Northern red oak Quercus rubra Flowers (None) 40.694080000000000 -73.456570000000000 73983
Wed Oct 12 00:00:00 GMT 2016 nperfetti98 Northern red oak Quercus rubra Fruit (None) 40.694080000000000 -73.456570000000000 73984
Tue Nov 22 00:00:00 GMT 2016 nperfetti064 Northern red oak Quercus rubra Leaves Unfolding (Late) 40.694080000000000 -73.456570000000000 73985
Tue Nov 22 00:00:00 GMT 2016 nperfetti064 Northern red oak Quercus rubra Leaves Changing Color (Early) 40.694080000000000 -73.456570000000000 73986
Tue Nov 22 00:00:00 GMT 2016 nperfetti064 Northern red oak Quercus rubra Leaves Dropping (Early) 40.694080000000000 -73.456570000000000 73987
Tue Nov 22 00:00:00 GMT 2016 nperfetti064 Northern red oak Quercus rubra Flowers (None) 40.694080000000000 -73.456570000000000 73988
Tue Nov 22 00:00:00 GMT 2016 nperfetti064 Northern red oak Quercus rubra Fruit (None) 40.694080000000000 -73.456570000000000 73989
Mon Oct 24 00:00:00 GMT 2016 jtess1 Northern red oak Quercus rubra 50% Color 41.927060000000000 -73.061520000000000 74209
Mon Oct 24 00:00:00 GMT 2016 jtess1 Northern red oak Quercus rubra 50% Color 41.927060000000000 -73.061520000000000 74210
Mon Nov 14 00:00:00 GMT 2016 jtess1 Northern red oak Quercus rubra 50% Leaf Fall 41.927060000000000 -73.061520000000000 74211
Mon Nov 14 00:00:00 GMT 2016 jtess1 Northern red oak Quercus rubra 50% Leaf Fall 41.927060000000000 -73.061520000000000 74212
Mon Dec 12 00:00:00 GMT 2016 MBGYouthandFamily Northern red oak Quercus rubra Leaves Unfolding (None) 38.613425100000000 -90.258645600000000 74287
Mon Dec 12 00:00:00 GMT 2016 MBGYouthandFamily Northern red oak Quercus rubra Leaves Changing Color (Late) 38.613425100000000 -90.258645600000000 74288
Mon Dec 12 00:00:00 GMT 2016 MBGYouthandFamily Northern red oak Quercus rubra Leaves Dropping (Late) 38.613425100000000 -90.258645600000000 74289
Mon Dec 12 00:00:00 GMT 2016 MBGYouthandFamily Northern red oak Quercus rubra Flowers (None) 38.613425100000000 -90.258645600000000 74290
Mon Dec 12 00:00:00 GMT 2016 MBGYouthandFamily Northern red oak Quercus rubra Fruit (Late) 38.613425100000000 -90.258645600000000 74291
Tue Feb 07 00:00:00 GMT 2017 MBGYouthandFamily Northern red oak Quercus rubra Leaves Unfolding (None) 38.613425100000000 -90.258645600000000 74794
Tue Feb 07 00:00:00 GMT 2017 MBGYouthandFamily Northern red oak Quercus rubra Leaves Changing Color (None) 38.613425100000000 -90.258645600000000 74795
Tue Feb 07 00:00:00 GMT 2017 MBGYouthandFamily Northern red oak Quercus rubra Leaves Dropping (None) 38.613425100000000 -90.258645600000000 74796
Tue Feb 07 00:00:00 GMT 2017 MBGYouthandFamily Northern red oak Quercus rubra Flowers (None) 38.613425100000000 -90.258645600000000 74797
Tue Feb 07 00:00:00 GMT 2017 MBGYouthandFamily Northern red oak Quercus rubra Fruit (None) 38.613425100000000 -90.258645600000000 74798
Fri Mar 17 00:00:00 GMT 2017 MBGYouthandFamily Northern red oak Quercus rubra Leaves Unfolding (None) 38.613425100000000 -90.258645600000000 75605
Fri Mar 17 00:00:00 GMT 2017 MBGYouthandFamily Northern red oak Quercus rubra Leaves Changing Color (None) 38.613425100000000 -90.258645600000000 75606
Fri Mar 17 00:00:00 GMT 2017 MBGYouthandFamily Northern red oak Quercus rubra Leaves Dropping (None) 38.613425100000000 -90.258645600000000 75607
Fri Mar 17 00:00:00 GMT 2017 MBGYouthandFamily Northern red oak Quercus rubra Flowers (None) 38.613425100000000 -90.258645600000000 75608
Fri Mar 17 00:00:00 GMT 2017 MBGYouthandFamily Northern red oak Quercus rubra Fruit (None) 38.613425100000000 -90.258645600000000 75609
Mon Mar 27 00:00:00 GMT 2017 ldanders Northern red oak Quercus rubra First Leaf 35.128600000000000 -80.717750000000000 76776
Tue Sep 27 00:00:00 GMT 2016 ldanders Northern red oak Quercus rubra 50% Color 35.128600000000000 -80.717750000000000 76777
Tue Sep 27 00:00:00 GMT 2016 ldanders Northern red oak Quercus rubra 50% Leaf Fall 35.128600000000000 -80.717750000000000 76778
Thu Feb 16 00:00:00 GMT 2017 JusticeHoffman Northern red oak Quercus rubra Bud Burst 39.167060000000000 -86.512620000000000 76991
Sat Apr 08 00:00:00 GMT 2017 aubdewulf Northern red oak Quercus rubra Bud Burst 39.169030000000000 -86.520101000000000 77031
Wed Apr 05 00:00:00 GMT 2017 alexabowman Northern red oak Quercus rubra Bud Burst 39.165948000000000 -86.526956000000000 77127
Tue Mar 21 00:00:00 GMT 2017 racheltheresa Northern red oak Quercus rubra Bud Burst 39.171769000000000 -86.531306000000000 77212
Sat Apr 08 00:00:00 GMT 2017 malayden Northern red oak Quercus rubra Leaves Unfolding (Early) 40.000000000000000 -100.000000000000000 77250
Sat Apr 08 00:00:00 GMT 2017 malayden Northern red oak Quercus rubra Leaves Changing Color (Early) 40.000000000000000 -100.000000000000000 77251
Sat Apr 08 00:00:00 GMT 2017 malayden Northern red oak Quercus rubra Leaves Dropping (None) 40.000000000000000 -100.000000000000000 77252
Sat Apr 08 00:00:00 GMT 2017 malayden Northern red oak Quercus rubra Flowers (Early) 40.000000000000000 -100.000000000000000 77253
Sat Apr 08 00:00:00 GMT 2017 malayden Northern red oak Quercus rubra Fruit (Early) 40.000000000000000 -100.000000000000000 77254
Mon Apr 10 00:00:00 GMT 2017 harleyschool Northern red oak Quercus rubra Leaves Unfolding (None) 43.120190000000000 -77.549770000000000 77339
Mon Apr 10 00:00:00 GMT 2017 harleyschool Northern red oak Quercus rubra Leaves Changing Color (None) 43.120190000000000 -77.549770000000000 77340
Mon Apr 10 00:00:00 GMT 2017 harleyschool Northern red oak Quercus rubra Leaves Dropping (None) 43.120190000000000 -77.549770000000000 77341
Mon Apr 10 00:00:00 GMT 2017 harleyschool Northern red oak Quercus rubra Flowers (None) 43.120190000000000 -77.549770000000000 77342
Mon Apr 10 00:00:00 GMT 2017 harleyschool Northern red oak Quercus rubra Fruit (None) 43.120190000000000 -77.549770000000000 77343
Mon Apr 10 00:00:00 GMT 2017 harleyschool Northern red oak Quercus rubra Leaves Unfolding (None) 43.120219000000000 -77.549787000000000 77344
Mon Apr 10 00:00:00 GMT 2017 harleyschool Northern red oak Quercus rubra Leaves Changing Color (None) 43.120219000000000 -77.549787000000000 77345
Mon Apr 10 00:00:00 GMT 2017 harleyschool Northern red oak Quercus rubra Leaves Dropping (None) 43.120219000000000 -77.549787000000000 77346
Mon Apr 10 00:00:00 GMT 2017 harleyschool Northern red oak Quercus rubra Flowers (None) 43.120219000000000 -77.549787000000000 77347
Mon Apr 10 00:00:00 GMT 2017 harleyschool Northern red oak Quercus rubra Fruit (None) 43.120219000000000 -77.549787000000000 77348
Sun Mar 26 00:00:00 GMT 2017 oliviastern Northern red oak Quercus rubra Bud Burst 39.168240000000000 -86.532070000000000 77888
Wed Apr 05 00:00:00 GMT 2017 oliviastern Northern red oak Quercus rubra Full Flower 39.168240000000000 -86.532070000000000 77889
Thu Apr 13 00:00:00 GMT 2017 ppattersonhcsd Northern red oak Quercus rubra Bud Burst 42.644093000000000 -78.540825000000000 78637
Mon Apr 17 00:00:00 GMT 2017 MBGYouthandFamily Northern red oak Quercus rubra Leaves Unfolding (Middle) 38.613425100000000 -90.258646000000000 79148
Mon Apr 17 00:00:00 GMT 2017 MBGYouthandFamily Northern red oak Quercus rubra Leaves Changing Color (None) 38.613425100000000 -90.258646000000000 79149
Mon Apr 17 00:00:00 GMT 2017 MBGYouthandFamily Northern red oak Quercus rubra Leaves Dropping (None) 38.613425100000000 -90.258646000000000 79150
Mon Apr 17 00:00:00 GMT 2017 MBGYouthandFamily Northern red oak Quercus rubra Flowers (None) 38.613425100000000 -90.258646000000000 79151
Mon Apr 17 00:00:00 GMT 2017 MBGYouthandFamily Northern red oak Quercus rubra Fruit (None) 38.613425100000000 -90.258646000000000 79152
Thu Apr 27 00:00:00 GMT 2017 rhanson_TPVS_Trails_reporter10 Northern red oak Quercus rubra Bud Burst 43.645000000000000 -72.525760000000000 80521

*All downloadable materials require the free Adobe Reader.